| time (UTC) | temp C | wind direction | speed KPH | gust KPH | rain 1hr cm | rain 24hr cm | rain mn cm | humidity % | barometer mb |
| 20260906082451 | 16 | 191 | 0.0 | 4.8 | 0.00 | 0.00 | 0.00 | 75 | 1024.3 |
| 20260906082352 | 16 | 165 | 0.0 | 4.8 | 0.00 | 0.00 | 0.00 | 74 | 1023.9 |
| 20260906082252 | 16 | 194 | 0.0 | 4.8 | 0.00 | 0.00 | 0.00 | 75 | 1024.2 |
| 20260906082210 | 16 | 188 | 0.0 | 4.8 | 0.00 | 0.00 | 0.00 | 75 | 1024.2 |
| 20260906082150 | 16 | 196 | 0.0 | 4.8 | 0.00 | 0.00 | 0.00 | 75 | 1024.4 |
| 20260906082052 | 16 | 190 | 0.0 | 4.8 | 0.00 | 0.00 | 0.00 | 75 | 1024.3 |
| 20260906081950 | 16 | 203 | 1.6 | 4.8 | 0.00 | 0.00 | 0.00 | 75 | 1024.0 |
| 20260906081838 | 16 | 189 | 0.0 | 4.8 | 0.00 | 0.00 | 0.00 | 75 | 1023.9 |
| 20260906081739 | 16 | 51 | 0.0 | 11.3 | 0.00 | 0.00 | 0.00 | 75 | 1024.3 |
| 20260906081710 | 16 | 204 | 1.6 | 11.3 | 0.00 | 0.00 | 0.00 | 75 | 1024.3 |
| 20260906081637 | 16 | 204 | 0.0 | 11.3 | 0.00 | 0.00 | 0.00 | 75 | 1024.2 |
| 20260906081538 | 16 | 173 | 0.0 | 11.3 | 0.00 | 0.00 | 0.00 | 74 | 1024.0 |
| 20260906081510 | 16 | 181 | 0.0 | 11.3 | 0.00 | 0.00 | 0.00 | 75 | 1024.0 |
| 20260906081502 | 16 | 216 | 0.0 | 11.3 | 0.00 | 0.00 | 0.00 | 75 | 1023.9 |
| 20260906081445 | 16 | 192 | 0.0 | 11.3 | 0.00 | 0.00 | 0.00 | 75 | 1023.9 |
| 20260906081429 | 16 | 191 | 0.0 | 11.3 | 0.00 | 0.00 | 0.00 | 75 | 1024.0 |
| 20260906081139 | 16 | 190 | 0.0 | 11.3 | 0.00 | 0.00 | 0.00 | 74 | 1023.8 |
| 20260906081057 | 17 | 205 | 0.0 | 9.7 | 0.00 | 0.00 | 0.00 | 70 | 1023.8 |
| 20260906081048 | 16 | 220 | 3.2 | 11.3 | 0.00 | 0.00 | 0.00 | 74 | 1023.8 |
| 20260906081029 | 16 | 191 | 0.0 | 11.3 | 0.00 | 0.00 | 0.00 | 73 | 1024.0 |
| 20260906081013 | 17 | 186 | 3.2 | 11.3 | 0.00 | 0.00 | 0.00 | 72 | 1023.8 |
| 20260906080734 | 17 | 67 | 3.2 | 9.7 | 0.00 | 0.00 | 0.00 | 72 | 1023.8 |
| 20260906080723 | 17 | 193 | 0.0 | 9.7 | 0.00 | 0.00 | 0.00 | 72 | 1023.9 |
| 20260906080705 | 17 | 182 | 1.6 | 9.7 | 0.00 | 0.00 | 0.00 | 71 | 1023.8 |
| 20260906080647 | 17 | 144 | 0.0 | 9.7 | 0.00 | 0.00 | 0.00 | 71 | 1023.9 |
| 20260906080629 | 17 | 133 | 3.2 | 9.7 | 0.00 | 0.00 | 0.00 | 70 | 1024.1 |
| 20260906080611 | 17 | 194 | 0.0 | 9.7 | 0.00 | 0.00 | 0.00 | 70 | 1023.8 |
| 20260906080119 | 17 | 213 | 4.8 | 6.4 | 0.00 | 0.00 | 0.00 | 70 | 1023.9 |
| 20260906080100 | 17 | 201 | 0.0 | 6.4 | 0.00 | 0.00 | 0.00 | 71 | 1023.9 |
| 20260906080044 | 16 | 166 | 0.0 | 6.4 | 0.00 | 0.00 | 0.00 | 72 | 1023.6 |
| 20260906075806 | 16 | 180 | 1.6 | 6.4 | 0.00 | 0.00 | 0.00 | 73 | 1023.8 |
| 20260906075755 | 16 | 67 | 1.6 | 6.4 | 0.00 | 0.00 | 0.00 | 73 | 1023.6 |
| 20260906075515 | 17 | 202 | 0.0 | 4.8 | 0.00 | 0.00 | 0.00 | 72 | 1023.6 |
| 20260906075500 | 17 | 211 | 3.2 | 4.8 | 0.00 | 0.00 | 0.00 | 72 | 1023.7 |
| 20260906075443 | 17 | 92 | 0.0 | 4.8 | 0.00 | 0.00 | 0.00 | 72 | 1023.7 |
| 20260906075424 | 17 | 202 | 0.0 | 4.8 | 0.00 | 0.00 | 0.00 | 72 | 1023.6 |
| 20260906075113 | 17 | 205 | 3.2 | 3.2 | 0.00 | 0.00 | 0.00 | 72 | 1023.8 |
| 20260906075021 | 17 | 208 | 3.2 | 3.2 | 0.00 | 0.00 | 0.00 | 72 | 1023.7 |
| 20260906075003 | 17 | 209 | 1.6 | 3.2 | 0.00 | 0.00 | 0.00 | 72 | 1023.6 |
| 20260906074945 | 17 | 208 | 1.6 | 3.2 | 0.00 | 0.00 | 0.00 | 72 | 1023.6 |
| 20260906074919 | 17 | 192 | 0.0 | 3.2 | 0.00 | 0.00 | 0.00 | 72 | 1023.7 |
| 20260906074858 | 17 | 200 | 1.6 | 3.2 | 0.00 | 0.00 | 0.00 | 72 | 1023.7 |
| 20260906074311 | 17 | 24 | 1.6 | 11.3 | 0.00 | 0.00 | 0.00 | 72 | 1023.6 |
| 20260906074211 | 17 | 117 | 0.0 | 11.3 | 0.00 | 0.00 | 0.00 | 72 | 1023.7 |
| 20260906074101 | 17 | 196 | 0.0 | 11.3 | 0.00 | 0.00 | 0.00 | 72 | 1023.6 |
| 20260906073959 | 17 | 200 | 0.0 | 11.3 | 0.00 | 0.00 | 0.00 | 72 | 1023.6 |
| 20260906073859 | 17 | 193 | 0.0 | 11.3 | 0.00 | 0.00 | 0.00 | 73 | 1023.5 |
| 20260906073800 | 17 | 121 | 1.6 | 11.3 | 0.00 | 0.00 | 0.00 | 72 | 1023.7 |
| 20260906073709 | 17 | 133 | 1.6 | 11.3 | 0.00 | 0.00 | 0.00 | 72 | 1023.7 |
| 20260906073701 | 17 | 172 | 1.6 | 11.3 | 0.00 | 0.00 | 0.00 | 72 | 1023.6 |
| 20260906073600 | 17 | 178 | 3.2 | 11.3 | 0.00 | 0.00 | 0.00 | 72 | 1023.6 |
| 20260906073501 | 17 | 247 | 1.6 | 11.3 | 0.00 | 0.00 | 0.00 | 72 | 1023.4 |
| 20260906073441 | 17 | 101 | 4.8 | 11.3 | 0.00 | 0.00 | 0.00 | 72 | 1023.5 |
| 20260906073425 | 17 | 198 | 0.0 | 6.4 | 0.00 | 0.00 | 0.00 | 72 | 1023.5 |
| 20260906073408 | 17 | 188 | 1.6 | 6.4 | 0.00 | 0.00 | 0.00 | 71 | 1023.5 |
| 20260906073401 | 17 | 55 | 3.2 | 6.4 | 0.00 | 0.00 | 0.00 | 71 | 1023.5 |
| 20260906073121 | 17 | 186 | 1.6 | 6.4 | 0.00 | 0.00 | 0.00 | 72 | 1023.3 |
| 20260906072811 | 15 | 180 | 0.0 | 9.7 | 0.00 | 0.00 | 0.00 | 75 | 1023.4 |
| 20260906072807 | 16 | 190 | 0.0 | 6.4 | 0.00 | 0.00 | 0.00 | 76 | 1023.1 |
| 20260906072801 | 17 | 204 | 0.0 | 9.7 | 0.00 | 0.00 | 0.00 | 72 | 1023.6 |
| 20260906072743 | 17 | 243 | 1.6 | 9.7 | 0.00 | 0.00 | 0.00 | 72 | 1023.6 |
| 20260906072736 | 17 | 222 | 3.2 | 9.7 | 0.00 | 0.00 | 0.00 | 72 | 1023.6 |
| 20260906072719 | 16 | 172 | 1.6 | 9.7 | 0.00 | 0.00 | 0.00 | 72 | 1023.1 |
| 20260906072702 | 16 | 196 | 0.0 | 9.7 | 0.00 | 0.00 | 0.00 | 73 | 1023.2 |
| 20260906072646 | 16 | 170 | 1.6 | 9.7 | 0.00 | 0.00 | 0.00 | 74 | 1023.2 |
| 20260906072629 | 16 | 193 | 0.0 | 9.7 | 0.00 | 0.00 | 0.00 | 75 | 1023.4 |
| 20260906072403 | 15 | 180 | 0.0 | 9.7 | 0.00 | 0.00 | 0.00 | 75 | 1023.4 |
| 20260906072347 | 15 | 164 | 0.0 | 9.7 | 0.00 | 0.00 | 0.00 | 75 | 1023.3 |
| 20260906072106 | 15 | 130 | 0.0 | 9.7 | 0.00 | 0.00 | 0.00 | 75 | 1023.2 |
| 20260906072049 | 15 | 200 | 0.0 | 9.7 | 0.00 | 0.00 | 0.00 | 76 | 1023.3 |
| 20260906072029 | 15 | 49 | 3.2 | 4.8 | 0.00 | 0.00 | 0.00 | 76 | 1023.3 |
| 20260906072022 | 15 | 174 | 0.0 | 4.8 | 0.00 | 0.00 | 0.00 | 76 | 1023.4 |
| 20260906071951 | 15 | 165 | 0.0 | 6.4 | 0.00 | 0.00 | 0.00 | 75 | 1023.3 |
| 20260906071239 | 16 | 185 | 1.6 | 6.4 | 0.00 | 0.00 | 0.00 | 76 | 1023.2 |
| 20260906071222 | 16 | 178 | 0.0 | 6.4 | 0.00 | 0.00 | 0.00 | 75 | 1023.2 |
| 20260906070900 | 16 | 179 | 0.0 | 6.4 | 0.00 | 0.00 | 0.00 | 75 | 1023.2 |
| 20260906070801 | 16 | 190 | 0.0 | 6.4 | 0.00 | 0.00 | 0.00 | 75 | 1023.2 |
| 20260906070704 | 16 | 185 | 0.0 | 6.4 | 0.00 | 0.00 | 0.00 | 76 | 1023.2 |
| 20260906070657 | 16 | 134 | 1.6 | 6.4 | 0.00 | 0.00 | 0.00 | 76 | 1023.2 |
| 20260906070556 | 16 | 183 | 0.0 | 6.4 | 0.00 | 0.00 | 0.00 | 76 | 1023.0 |
| 20260906070522 | 15 | 110 | 1.6 | 6.4 | 0.00 | 0.00 | 0.00 | 78 | 1023.1 |
| 20260906070515 | 15 | 53 | 1.6 | 6.4 | 0.00 | 0.00 | 0.00 | 76 | 1023.0 |
| 20260906070457 | 15 | 217 | 1.6 | 6.4 | 0.00 | 0.00 | 0.00 | 77 | 1023.1 |
| 20260906070439 | 15 | 187 | 0.0 | 6.4 | 0.00 | 0.00 | 0.00 | 78 | 1023.1 |
| 20260906070155 | 15 | 183 | 0.0 | 6.4 | 0.00 | 0.00 | 0.00 | 78 | 1023.2 |
| 20260906070055 | 15 | 75 | 3.2 | 6.4 | 0.00 | 0.00 | 0.00 | 77 | 1023.0 |
| 20260906065957 | 15 | 182 | 0.0 | 9.7 | 0.00 | 0.00 | 0.00 | 77 | 1023.0 |
| 20260906065941 | 15 | 112 | 0.0 | 9.7 | 0.00 | 0.00 | 0.00 | 77 | 1023.4 |
| 20260906065926 | 15 | 125 | 3.2 | 9.7 | 0.00 | 0.00 | 0.00 | 77 | 1023.2 |
| 20260906065906 | 15 | 166 | 0.0 | 9.7 | 0.00 | 0.00 | 0.00 | 77 | 1023.2 |
| 20260906065557 | 15 | 188 | 0.0 | 11.3 | 0.00 | 0.00 | 0.00 | 77 | 1023.2 |
| 20260906065456 | 16 | 62 | 3.2 | 11.3 | 0.00 | 0.00 | 0.00 | 76 | 1023.2 |
| 20260906065356 | 16 | 174 | 1.6 | 11.3 | 0.00 | 0.00 | 0.00 | 76 | 1023.0 |
| 20260906065259 | 16 | 191 | 0.0 | 11.3 | 0.00 | 0.00 | 0.00 | 76 | 1023.0 |
| 20260906065242 | 16 | 184 | 1.6 | 11.3 | 0.00 | 0.00 | 0.00 | 76 | 1023.0 |
| 20260906065235 | 16 | 177 | 3.2 | 11.3 | 0.00 | 0.00 | 0.00 | 76 | 1023.0 |
| 20260906065218 | 16 | 196 | 0.0 | 11.3 | 0.00 | 0.00 | 0.00 | 75 | 1022.9 |
| 20260906064856 | 16 | 192 | 0.0 | 11.3 | 0.00 | 0.00 | 0.00 | 75 | 1023.1 |
| 20260906064759 | 16 | 187 | 0.0 | 11.3 | 0.00 | 0.00 | 0.00 | 76 | 1022.9 |
| 20260906064740 | 16 | 167 | 3.2 | 11.3 | 0.00 | 0.00 | 0.00 | 76 | 1022.9 |
| 20260906064733 | 16 | 202 | 1.6 | 4.8 | 0.00 | 0.00 | 0.00 | 76 | 1023.0 |
| 20260906064718 | 16 | 206 | 0.0 | 4.8 | 0.00 | 0.00 | 0.00 | 76 | 1023.1 |
| 20260906064357 | 16 | 170 | 3.2 | 4.8 | 0.00 | 0.00 | 0.00 | 75 | 1023.1 |
| 20260906064256 | 16 | 182 | 0.0 | 4.8 | 0.00 | 0.00 | 0.00 | 75 | 1022.9 |
| 20260906064203 | 16 | 177 | 0.0 | 4.8 | 0.00 | 0.00 | 0.00 | 75 | 1022.9 |
| 20260906064155 | 16 | 154 | 1.6 | 4.8 | 0.00 | 0.00 | 0.00 | 75 | 1023.1 |
| 20260906064056 | 16 | 199 | 0.0 | 4.8 | 0.00 | 0.00 | 0.00 | 75 | 1022.7 |
| 20260906063956 | 16 | 114 | 1.6 | 4.8 | 0.00 | 0.00 | 0.00 | 75 | 1022.7 |
| 20260906063856 | 16 | 185 | 1.6 | 4.8 | 0.00 | 0.00 | 0.00 | 75 | 1022.6 |
| 20260906063829 | 16 | 193 | 0.0 | 4.8 | 0.00 | 0.00 | 0.00 | 74 | 1022.6 |
| 20260906063812 | 16 | 196 | 0.0 | 4.8 | 0.00 | 0.00 | 0.00 | 74 | 1022.6 |
| 20260906063804 | 16 | 203 | 1.6 | 4.8 | 0.00 | 0.00 | 0.00 | 74 | 1022.7 |
| 20260906063445 | 16 | 201 | 1.6 | 3.2 | 0.00 | 0.00 | 0.00 | 74 | 1022.5 |
| 20260906063346 | 16 | 180 | 0.0 | 3.2 | 0.00 | 0.00 | 0.00 | 74 | 1023.0 |
| 20260906063329 | 16 | 127 | 0.0 | 3.2 | 0.00 | 0.00 | 0.00 | 74 | 1022.7 |
| 20260906063314 | 16 | 188 | 0.0 | 4.8 | 0.00 | 0.00 | 0.00 | 74 | 1022.7 |
| 20260906063306 | 16 | 124 | 1.6 | 4.8 | 0.00 | 0.00 | 0.00 | 74 | 1022.7 |
| 20260906062944 | 16 | 194 | 0.0 | 4.8 | 0.00 | 0.00 | 0.00 | 75 | 1023.0 |
| 20260906062844 | 16 | 194 | 0.0 | 4.8 | 0.00 | 0.00 | 0.00 | 76 | 1022.7 |
| 20260906062744 | 16 | 198 | 1.6 | 4.8 | 0.00 | 0.00 | 0.00 | 76 | 1022.7 |
| 20260906062705 | 16 | 186 | 0.0 | 4.8 | 0.00 | 0.00 | 0.00 | 76 | 1022.7 |
| 20260906062643 | 16 | 145 | 0.0 | 4.8 | 0.00 | 0.00 | 0.00 | 76 | 1022.4 |
| 20260906062543 | 16 | 204 | 1.6 | 4.8 | 0.00 | 0.00 | 0.00 | 76 | 1022.6 |
| 20260906062445 | 16 | 121 | 0.0 | 4.8 | 0.00 | 0.00 | 0.00 | 76 | 1022.7 |
| 20260906062343 | 16 | 194 | 1.6 | 4.8 | 0.00 | 0.00 | 0.00 | 77 | 1022.6 |
| 20260906062245 | 16 | 219 | 3.2 | 4.8 | 0.00 | 0.00 | 0.00 | 77 | 1022.7 |
| 20260906062203 | 16 | 126 | 1.6 | 4.8 | 0.00 | 0.00 | 0.00 | 76 | 1022.7 |
| 20260906062144 | 16 | 182 | 0.0 | 4.8 | 0.00 | 0.00 | 0.00 | 77 | 1022.4 |
| 20260906062044 | 16 | 189 | 0.0 | 4.8 | 0.00 | 0.00 | 0.00 | 77 | 1022.3 |
| 20260906061945 | 16 | 186 | 0.0 | 4.8 | 0.00 | 0.00 | 0.00 | 77 | 1022.7 |
| 20260906061845 | 16 | 168 | 0.0 | 4.8 | 0.00 | 0.00 | 0.00 | 76 | 1022.5 |
| 20260906061744 | 16 | 182 | 1.6 | 4.8 | 0.00 | 0.00 | 0.00 | 76 | 1022.6 |
| 20260906061705 | 16 | 212 | 0.0 | 4.8 | 0.00 | 0.00 | 0.00 | 77 | 1022.6 |
| 20260906061643 | 16 | 158 | 1.6 | 4.8 | 0.00 | 0.00 | 0.00 | 77 | 1022.4 |
| 20260906061543 | 16 | 198 | 1.6 | 4.8 | 0.00 | 0.00 | 0.00 | 77 | 1022.5 |
| 20260906061443 | 16 | 171 | 1.6 | 4.8 | 0.00 | 0.00 | 0.00 | 77 | 1022.5 |
| 20260906061344 | 16 | 212 | 0.0 | 3.2 | 0.00 | 0.00 | 0.00 | 77 | 1022.9 |
| 20260906061243 | 16 | 198 | 0.0 | 3.2 | 0.00 | 0.00 | 0.00 | 77 | 1022.6 |
| 20260906061204 | 16 | 196 | 0.0 | 3.2 | 0.00 | 0.00 | 0.00 | 77 | 1022.6 |
| 20260906061143 | 16 | 251 | 1.6 | 3.2 | 0.00 | 0.00 | 0.00 | 78 | 1022.5 |
| 20260906061122 | 16 | 196 | 0.0 | 3.2 | 0.00 | 0.00 | 0.00 | 77 | 1022.5 |
| 20260906061106 | 16 | 192 | 0.0 | 3.2 | 0.00 | 0.00 | 0.00 | 78 | 1022.3 |
| 20260906061049 | 16 | 257 | 0.0 | 3.2 | 0.00 | 0.00 | 0.00 | 78 | 1022.5 |
| 20260906060812 | 15 | 198 | 0.0 | 3.2 | 0.00 | 0.00 | 0.00 | 78 | 1022.3 |
| 20260906060805 | 15 | 177 | 0.0 | 3.2 | 0.00 | 0.00 | 0.00 | 78 | 1022.4 |
| 20260906060446 | 15 | 99 | 1.6 | 3.2 | 0.00 | 0.00 | 0.00 | 79 | 1022.6 |
| 20260906060429 | 15 | 212 | 0.0 | 3.2 | 0.00 | 0.00 | 0.00 | 79 | 1022.5 |
| 20260906060412 | 15 | 204 | 0.0 | 3.2 | 0.00 | 0.00 | 0.00 | 79 | 1022.5 |
| 20260906060357 | 16 | 199 | 1.6 | 3.2 | 0.00 | 0.00 | 0.00 | 79 | 1022.5 |
| 20260906060043 | 15 | 285 | 0.0 | 3.2 | 0.00 | 0.00 | 0.00 | 79 | 1022.5 |
| 20260906055943 | 15 | 283 | 0.0 | 3.2 | 0.00 | 0.00 | 0.00 | 79 | 1022.4 |
| 20260906055845 | 15 | 194 | 0.0 | 3.2 | 0.00 | 0.00 | 0.00 | 79 | 1022.3 |
| 20260906055704 | 15 | 171 | 0.0 | 4.8 | 0.00 | 0.00 | 0.00 | 79 | 1022.4 |
| 20260906055645 | 15 | 191 | 0.0 | 4.8 | 0.00 | 0.00 | 0.00 | 80 | 1022.5 |
| 20260906055623 | 15 | 197 | 0.0 | 4.8 | 0.00 | 0.00 | 0.00 | 80 | 1022.6 |
| 20260906055605 | 15 | 161 | 0.0 | 4.8 | 0.00 | 0.00 | 0.00 | 81 | 1022.5 |
| 20260906055246 | 15 | 187 | 0.0 | 11.3 | 0.00 | 0.00 | 0.00 | 81 | 1022.5 |
| 20260906055203 | 15 | 185 | 0.0 | 11.3 | 0.00 | 0.00 | 0.00 | 81 | 1022.5 |
| 20260906055144 | 15 | 191 | 1.6 | 11.3 | 0.00 | 0.00 | 0.00 | 81 | 1022.3 |
| 20260906055122 | 15 | 194 | 0.0 | 11.3 | 0.00 | 0.00 | 0.00 | 82 | 1022.3 |
| 20260906055105 | 15 | 184 | 0.0 | 11.3 | 0.00 | 0.00 | 0.00 | 82 | 1022.3 |
| 20260906054743 | 15 | 346 | 3.2 | 11.3 | 0.00 | 0.00 | 0.00 | 82 | 1022.3 |
| 20260906054716 | 15 | 222 | 3.2 | 11.3 | 0.00 | 0.00 | 0.00 | 82 | 1022.3 |
| 20260906054643 | 15 | 153 | 3.2 | 11.3 | 0.00 | 0.00 | 0.00 | 82 | 1022.3 |
| 20260906054543 | 15 | 59 | 3.2 | 11.3 | 0.00 | 0.00 | 0.00 | 81 | 1022.3 |
| 20260906054519 | 15 | 198 | 0.0 | 11.3 | 0.00 | 0.00 | 0.00 | 82 | 1022.1 |
| 20260906054505 | 15 | 180 | 0.0 | 4.8 | 0.00 | 0.00 | 0.00 | 82 | 1022.2 |
| 20260906054203 | 14 | 185 | 0.0 | 4.8 | 0.00 | 0.00 | 0.00 | 83 | 1022.3 |
| 20260906054143 | 14 | 190 | 0.0 | 4.8 | 0.00 | 0.00 | 0.00 | 83 | 1022.4 |
| 20260906054043 | 14 | 206 | 1.6 | 1.6 | 0.00 | 0.00 | 0.00 | 83 | 1022.5 |
| 20260906054013 | 14 | 160 | 0.0 | 3.2 | 0.00 | 0.00 | 0.00 | 83 | 1022.4 |
| 20260906053956 | 14 | 194 | 0.0 | 3.2 | 0.00 | 0.00 | 0.00 | 84 | 1022.3 |
| 20260906053941 | 14 | 188 | 0.0 | 3.2 | 0.00 | 0.00 | 0.00 | 84 | 1022.2 |
| 20260906053924 | 14 | 188 | 0.0 | 3.2 | 0.00 | 0.00 | 0.00 | 85 | 1022.2 |
| 20260906053916 | 14 | 194 | 0.0 | 3.2 | 0.00 | 0.00 | 0.00 | 85 | 1022.3 |
| 20260906053639 | 13 | 196 | 0.0 | 3.2 | 0.00 | 0.00 | 0.00 | 85 | 1022.0 |
| 20260906053624 | 13 | 210 | 0.0 | 3.2 | 0.00 | 0.00 | 0.00 | 85 | 1022.3 |
| 20260906053348 | 13 | 197 | 0.0 | 3.2 | 0.00 | 0.00 | 0.00 | 85 | 1022.2 |
| 20260906053340 | 13 | 199 | 0.0 | 3.2 | 0.00 | 0.00 | 0.00 | 85 | 1022.1 |
| 20260906053324 | 13 | 185 | 0.0 | 3.2 | 0.00 | 0.00 | 0.00 | 85 | 1022.3 |
| 20260906053309 | 13 | 192 | 0.0 | 3.2 | 0.00 | 0.00 | 0.00 | 85 | 1022.3 |
| 20260906053032 | 13 | 201 | 0.0 | 3.2 | 0.00 | 0.00 | 0.00 | 85 | 1022.1 |
| 20260906053015 | 13 | 186 | 0.0 | 3.2 | 0.00 | 0.00 | 0.00 | 86 | 1022.1 |
| 20260906052443 | 13 | 189 | 0.0 | 1.6 | 0.00 | 0.00 | 0.00 | 86 | 1022.3 |
| 20260906052403 | 13 | 192 | 0.0 | 6.4 | 0.00 | 0.00 | 0.00 | 87 | 1022.0 |
| 20260906052356 | 13 | 189 | 0.0 | 1.6 | 0.00 | 0.00 | 0.00 | 86 | 1022.3 |
| 20260906052340 | 13 | 199 | 0.0 | 1.6 | 0.00 | 0.00 | 0.00 | 86 | 1022.2 |
| 20260906052326 | 13 | 190 | 0.0 | 1.6 | 0.00 | 0.00 | 0.00 | 87 | 1022.2 |
| 20260906052319 | 13 | 191 | 0.0 | 1.6 | 0.00 | 0.00 | 0.00 | 87 | 1022.2 |
| 20260906052305 | 13 | 192 | 0.0 | 3.2 | 0.00 | 0.00 | 0.00 | 87 | 1022.2 |
| 20260906052246 | 13 | 188 | 0.0 | 3.2 | 0.00 | 0.00 | 0.00 | 87 | 1022.2 |
| 20260906052230 | 13 | 195 | 0.0 | 3.2 | 0.00 | 0.00 | 0.00 | 87 | 1022.0 |
| 20260906052214 | 13 | 186 | 0.0 | 3.2 | 0.00 | 0.00 | 0.00 | 87 | 1022.1 |
| 20260906052158 | 13 | 188 | 0.0 | 3.2 | 0.00 | 0.00 | 0.00 | 87 | 1022.1 |
| 20260906052150 | 13 | 164 | 0.0 | 3.2 | 0.00 | 0.00 | 0.00 | 87 | 1022.2 |
| 20260906051913 | 13 | 182 | 0.0 | 6.4 | 0.00 | 0.00 | 0.00 | 87 | 1022.2 |
| 20260906051143 | 13 | 196 | 0.0 | 6.4 | 0.00 | 0.00 | 0.00 | 87 | 1022.0 |
| 20260906051044 | 13 | 191 | 0.0 | 6.4 | 0.00 | 0.00 | 0.00 | 87 | 1021.9 |
| 20260906050943 | 13 | 194 | 0.0 | 6.4 | 0.00 | 0.00 | 0.00 | 87 | 1022.2 |
| 20260906050843 | 13 | 211 | 0.0 | 6.4 | 0.00 | 0.00 | 0.00 | 87 | 1021.9 |
| 20260906050744 | 13 | 187 | 0.0 | 6.4 | 0.00 | 0.00 | 0.00 | 88 | 1021.8 |
| 20260906050716 | 13 | 199 | 0.0 | 6.4 | 0.00 | 0.00 | 0.00 | 88 | 1021.8 |
| 20260906050643 | 13 | 208 | 1.6 | 6.4 | 0.00 | 0.00 | 0.00 | 88 | 1021.9 |
| 20260906050543 | 13 | 202 | 0.0 | 3.2 | 0.00 | 0.00 | 0.00 | 88 | 1021.7 |
| 20260906050516 | 13 | 132 | 0.0 | 3.2 | 0.00 | 0.00 | 0.00 | 88 | 1022.1 |
| 20260906050508 | 13 | 186 | 0.0 | 3.2 | 0.00 | 0.00 | 0.00 | 88 | 1021.9 |
| 20260906050452 | 13 | 189 | 0.0 | 3.2 | 0.00 | 0.00 | 0.00 | 88 | 1021.8 |
| 20260906050437 | 13 | 198 | 0.0 | 3.2 | 0.00 | 0.00 | 0.00 | 88 | 1022.1 |
| 20260906050143 | 13 | 185 | 0.0 | 3.2 | 0.00 | 0.00 | 0.00 | 88 | 1022.1 |
| 20260906050043 | 13 | 203 | 1.6 | 3.2 | 0.00 | 0.00 | 0.00 | 88 | 1021.8 |
| 20260906045942 | 13 | 203 | 0.0 | 1.6 | 0.00 | 0.00 | 0.00 | 88 | 1021.9 |
| 20260906045843 | 13 | 210 | 0.0 | 1.6 | 0.00 | 0.00 | 0.00 | 88 | 1021.8 |
| 20260906045744 | 13 | 199 | 0.0 | 1.6 | 0.00 | 0.00 | 0.00 | 89 | 1021.7 |
| 20260906045703 | 12 | 202 | 0.0 | 1.6 | 0.00 | 0.00 | 0.00 | 89 | 1021.7 |
| 20260906045643 | 12 | 200 | 0.0 | 1.6 | 0.00 | 0.00 | 0.00 | 89 | 1021.8 |
| 20260906045621 | 12 | 219 | 0.0 | 3.2 | 0.00 | 0.00 | 0.00 | 89 | 1021.6 |
| 20260906045605 | 12 | 203 | 0.0 | 3.2 | 0.00 | 0.00 | 0.00 | 89 | 1021.7 |
| 20260906045243 | 12 | 201 | 1.6 | 3.2 | 0.00 | 0.00 | 0.00 | 89 | 1021.6 |
| 20260906045204 | 12 | 194 | 0.0 | 3.2 | 0.00 | 0.00 | 0.00 | 89 | 1021.6 |
| 20260906045143 | 12 | 194 | 0.0 | 3.2 | 0.00 | 0.00 | 0.00 | 89 | 1021.6 |
| 20260906045042 | 12 | 192 | 0.0 | 3.2 | 0.00 | 0.00 | 0.00 | 89 | 1021.6 |
| 20260906044944 | 12 | 192 | 0.0 | 3.2 | 0.00 | 0.00 | 0.00 | 89 | 1021.7 |
| 20260906044928 | 12 | 190 | 0.0 | 3.2 | 0.00 | 0.00 | 0.00 | 89 | 1021.6 |
| 20260906044913 | 12 | 194 | 0.0 | 3.2 | 0.00 | 0.00 | 0.00 | 89 | 1021.8 |
| 20260906044855 | 12 | 194 | 0.0 | 3.2 | 0.00 | 0.00 | 0.00 | 89 | 1021.8 |
| 20260906044543 | 12 | 208 | 1.6 | 3.2 | 0.00 | 0.00 | 0.00 | 89 | 1021.6 |
| 20260906044502 | 12 | 198 | 0.0 | 1.6 | 0.00 | 0.00 | 0.00 | 89 | 1021.6 |
| 20260906044456 | 12 | 256 | 0.0 | 1.6 | 0.00 | 0.00 | 0.00 | 89 | 1021.7 |
| 20260906044439 | 12 | 174 | 0.0 | 1.6 | 0.00 | 0.00 | 0.00 | 89 | 1021.9 |
| 20260906044423 | 12 | 203 | 1.6 | 1.6 | 0.00 | 0.00 | 0.00 | 89 | 1021.6 |
| 20260906044143 | 12 | 196 | 0.0 | 1.6 | 0.00 | 0.00 | 0.00 | 89 | 1021.7 |
| 20260906044043 | 12 | 214 | 0.0 | 1.6 | 0.00 | 0.00 | 0.00 | 89 | 1021.6 |
| 20260906044004 | 12 | 192 | 0.0 | 1.6 | 0.00 | 0.00 | 0.00 | 89 | 1021.5 |
| 20260906043957 | 12 | 187 | 0.0 | 1.6 | 0.00 | 0.00 | 0.00 | 89 | 1021.7 |
| 20260906043941 | 12 | 204 | 0.0 | 1.6 | 0.00 | 0.00 | 0.00 | 89 | 1021.7 |
| 20260906043924 | 12 | 200 | 0.0 | 1.6 | 0.00 | 0.00 | 0.00 | 89 | 1021.5 |
| 20260906043643 | 12 | 192 | 0.0 | 1.6 | 0.00 | 0.00 | 0.00 | 89 | 1021.8 |
| 20260906043619 | 12 | 198 | 0.0 | 1.6 | 0.00 | 0.00 | 0.00 | 89 | 1021.6 |
| 20260906043603 | 12 | 200 | 0.0 | 1.6 | 0.00 | 0.00 | 0.00 | 89 | 1021.7 |
| 20260906043325 | 12 | 259 | 0.0 | 1.6 | 0.00 | 0.00 | 0.00 | 89 | 1021.6 |
| 20260906043310 | 12 | 197 | 0.0 | 1.6 | 0.00 | 0.00 | 0.00 | 90 | 1021.6 |
| 20260906043303 | 12 | 199 | 0.0 | 1.6 | 0.00 | 0.00 | 0.00 | 90 | 1021.4 |
| 20260906042943 | 12 | 194 | 0.0 | 3.2 | 0.00 | 0.00 | 0.00 | 90 | 1021.5 |
| 20260906042843 | 12 | 192 | 0.0 | 3.2 | 0.00 | 0.00 | 0.00 | 90 | 1021.5 |
| 20260906042828 | 12 | 194 | 0.0 | 3.2 | 0.00 | 0.00 | 0.00 | 90 | 1021.6 |
| 20260906042811 | 12 | 189 | 0.0 | 3.2 | 0.00 | 0.00 | 0.00 | 90 | 1021.6 |
| 20260906042803 | 12 | 200 | 0.0 | 3.2 | 0.00 | 0.00 | 0.00 | 90 | 1021.5 |
| 20260906042443 | 12 | 198 | 0.0 | 3.2 | 0.00 | 0.00 | 0.00 | 90 | 1021.7 |
| 20260906042343 | 12 | 199 | 0.0 | 3.2 | 0.00 | 0.00 | 0.00 | 90 | 1021.7 |
| 20260906042242 | 12 | 192 | 0.0 | 3.2 | 0.00 | 0.00 | 0.00 | 90 | 1021.6 |
| 20260906042216 | 12 | 195 | 0.0 | 3.2 | 0.00 | 0.00 | 0.00 | 90 | 1021.6 |
| 20260906042207 | 12 | 206 | 0.0 | 3.2 | 0.00 | 0.00 | 0.00 | 90 | 1021.5 |
| 20260906042151 | 12 | 197 | 0.0 | 3.2 | 0.00 | 0.00 | 0.00 | 90 | 1021.5 |
| 20260906041900 | 12 | 200 | 0.0 | 3.2 | 0.00 | 0.00 | 0.00 | 90 | 1021.1 |
| 20260906041855 | 12 | 195 | 0.0 | 3.2 | 0.00 | 0.00 | 0.00 | 90 | 1021.2 |
| 20260906041850 | 12 | 196 | 0.0 | 1.6 | 0.00 | 0.00 | 0.00 | 91 | 1021.4 |
| 20260906041843 | 12 | 200 | 0.0 | 3.2 | 0.00 | 0.00 | 0.00 | 90 | 1021.5 |
| 20260906041828 | 12 | 203 | 0.0 | 3.2 | 0.00 | 0.00 | 0.00 | 90 | 1021.6 |
| 20260906041813 | 12 | 208 | 0.0 | 3.2 | 0.00 | 0.00 | 0.00 | 90 | 1021.6 |
| 20260906041803 | 12 | 154 | 0.0 | 3.2 | 0.00 | 0.00 | 0.00 | 90 | 1021.5 |
| 20260906041748 | 12 | 186 | 0.0 | 3.2 | 0.00 | 0.00 | 0.00 | 90 | 1021.5 |
| 20260906041731 | 12 | 190 | 0.0 | 3.2 | 0.00 | 0.00 | 0.00 | 90 | 1021.6 |
| 20260906041715 | 12 | 183 | 0.0 | 3.2 | 0.00 | 0.00 | 0.00 | 90 | 1021.5 |
| 20260906041700 | 12 | 180 | 0.0 | 1.6 | 0.00 | 0.00 | 0.00 | 91 | 1021.5 |
| 20260906041647 | 12 | 198 | 0.0 | 1.6 | 0.00 | 0.00 | 0.00 | 91 | 1021.5 |
| 20260906041639 | 12 | 199 | 0.0 | 1.6 | 0.00 | 0.00 | 0.00 | 91 | 1021.5 |
| 20260906041623 | 12 | 196 | 0.0 | 1.6 | 0.00 | 0.00 | 0.00 | 91 | 1021.5 |
| 20260906041127 | 12 | 196 | 0.0 | 1.6 | 0.00 | 0.00 | 0.00 | 91 | 1021.4 |
| 20260906040649 | 12 | 199 | 0.0 | 1.6 | 0.00 | 0.00 | 0.00 | 91 | 1021.3 |
| 20260906040633 | 12 | 195 | 0.0 | 1.6 | 0.00 | 0.00 | 0.00 | 91 | 1021.3 |
| 20260906040616 | 12 | 192 | 0.0 | 1.6 | 0.00 | 0.00 | 0.00 | 91 | 1021.4 |
| 20260906040601 | 12 | 200 | 0.0 | 1.6 | 0.00 | 0.00 | 0.00 | 91 | 1021.2 |
| 20260906040328 | 12 | 196 | 0.0 | 1.6 | 0.00 | 0.00 | 0.00 | 91 | 1021.4 |
| 20260906040306 | 12 | 196 | 0.0 | 1.6 | 0.00 | 0.00 | 0.00 | 91 | 1021.5 |
| 20260906040250 | 12 | 199 | 0.0 | 1.6 | 0.00 | 0.00 | 0.00 | 91 | 1021.4 |
| 20260906040233 | 12 | 191 | 0.0 | 1.6 | 0.00 | 0.00 | 0.00 | 91 | 1021.4 |
| 20260906035748 | 12 | 203 | 0.0 | 3.2 | 0.00 | 0.00 | 0.00 | 91 | 1021.3 |
| 20260906035732 | 12 | 200 | 0.0 | 3.2 | 0.00 | 0.00 | 0.00 | 91 | 1021.3 |
| 20260906035723 | 12 | 198 | 0.0 | 3.2 | 0.00 | 0.00 | 0.00 | 91 | 1021.3 |
| 20260906035707 | 12 | 195 | 0.0 | 3.2 | 0.00 | 0.00 | 0.00 | 91 | 1021.3 |
| 20260906035431 | 12 | 201 | 0.0 | 3.2 | 0.00 | 0.00 | 0.00 | 91 | 1021.4 |
| 20260906035401 | 12 | 203 | 0.0 | 3.2 | 0.00 | 0.00 | 0.00 | 90 | 1021.5 |
| 20260906035352 | 12 | 200 | 0.0 | 3.2 | 0.00 | 0.00 | 0.00 | 90 | 1021.3 |
| 20260906035337 | 12 | 209 | 0.0 | 3.2 | 0.00 | 0.00 | 0.00 | 90 | 1021.2 |
| 20260906035320 | 12 | 204 | 0.0 | 3.2 | 0.00 | 0.00 | 0.00 | 90 | 1021.2 |
| 20260906035306 | 12 | 194 | 0.0 | 3.2 | 0.00 | 0.00 | 0.00 | 90 | 1021.1 |
| 20260906035248 | 12 | 199 | 0.0 | 3.2 | 0.00 | 0.00 | 0.00 | 90 | 1021.1 |
| 20260906035020 | 12 | 205 | 0.0 | 3.2 | 0.00 | 0.00 | 0.00 | 91 | 1021.2 |
| 20260906035004 | 12 | 199 | 0.0 | 3.2 | 0.00 | 0.00 | 0.00 | 90 | 1021.1 |
| 20260906034729 | 12 | 199 | 0.0 | 3.2 | 0.00 | 0.00 | 0.00 | 90 | 1021.3 |
| 20260906034713 | 12 | 200 | 0.0 | 3.2 | 0.00 | 0.00 | 0.00 | 90 | 1021.3 |
| 20260906034700 | 12 | 201 | 0.0 | 3.2 | 0.00 | 0.00 | 0.00 | 90 | 1021.3 |
| 20260906034212 | 12 | 204 | 1.6 | 3.2 | 0.00 | 0.00 | 0.00 | 90 | 1021.3 |
| 20260906033936 | 12 | 207 | 1.6 | 3.2 | 0.00 | 0.00 | 0.00 | 90 | 1021.2 |
| 20260906033708 | 12 | 179 | 0.0 | 3.2 | 0.00 | 0.00 | 0.00 | 90 | 1021.1 |
| 20260906033652 | 12 | 192 | 1.6 | 3.2 | 0.00 | 0.00 | 0.00 | 90 | 1021.0 |
| 20260906033331 | 12 | 199 | 0.0 | 1.6 | 0.00 | 0.00 | 0.00 | 90 | 1021.3 |
| 20260906033232 | 12 | 196 | 0.0 | 1.6 | 0.00 | 0.00 | 0.00 | 90 | 1021.3 |
| 20260906033203 | 12 | 199 | 0.0 | 1.6 | 0.00 | 0.00 | 0.00 | 90 | 1021.3 |
| 20260906033131 | 12 | 200 | 0.0 | 1.6 | 0.00 | 0.00 | 0.00 | 90 | 1021.1 |
| 20260906033107 | 12 | 206 | 0.0 | 1.6 | 0.00 | 0.00 | 0.00 | 90 | 1021.2 |
| 20260906033051 | 12 | 196 | 0.0 | 0.0 | 0.00 | 0.00 | 0.00 | 90 | 1021.1 |
| 20260906032731 | 12 | 201 | 0.0 | 0.0 | 0.00 | 0.00 | 0.00 | 90 | 1021.3 |
| 20260906032703 | 12 | 199 | 0.0 | 0.0 | 0.00 | 0.00 | 0.00 | 90 | 1021.3 |
| 20260906032632 | 12 | 189 | 0.0 | 0.0 | 0.00 | 0.00 | 0.00 | 90 | 1021.3 |
| 20260906032606 | 12 | 203 | 0.0 | 3.2 | 0.00 | 0.00 | 0.00 | 90 | 1021.2 |
| 20260906032551 | 12 | 198 | 0.0 | 3.2 | 0.00 | 0.00 | 0.00 | 90 | 1021.1 |
| 20260906032203 | 12 | 199 | 0.0 | 3.2 | 0.00 | 0.00 | 0.00 | 90 | 1021.0 |
| 20260906032132 | 12 | 187 | 0.0 | 3.2 | 0.00 | 0.00 | 0.00 | 90 | 1021.0 |
| 20260906032031 | 12 | 192 | 0.0 | 3.2 | 0.00 | 0.00 | 0.00 | 90 | 1021.2 |
| 20260906031931 | 12 | 192 | 0.0 | 3.2 | 0.00 | 0.00 | 0.00 | 90 | 1021.2 |
| 20260906031830 | 12 | 192 | 0.0 | 3.2 | 0.00 | 0.00 | 0.00 | 90 | 1021.0 |
| 20260906031731 | 12 | 194 | 0.0 | 3.2 | 0.00 | 0.00 | 0.00 | 90 | 1021.1 |
| 20260906031704 | 12 | 192 | 0.0 | 3.2 | 0.00 | 0.00 | 0.00 | 90 | 1021.1 |
| 20260906031631 | 12 | 123 | 1.6 | 3.2 | 0.00 | 0.00 | 0.00 | 90 | 1021.2 |
| 20260906031531 | 12 | 209 | 0.0 | 3.2 | 0.00 | 0.00 | 0.00 | 90 | 1021.0 |
| 20260906031504 | 12 | 199 | 0.0 | 1.6 | 0.00 | 0.00 | 0.00 | 91 | 1021.1 |
| 20260906031457 | 12 | 198 | 0.0 | 1.6 | 0.00 | 0.00 | 0.00 | 91 | 1021.2 |
| 20260906031450 | 12 | 186 | 0.0 | 3.2 | 0.00 | 0.00 | 0.00 | 90 | 1021.1 |
| 20260906031435 | 12 | 199 | 0.0 | 3.2 | 0.00 | 0.00 | 0.00 | 90 | 1021.0 |
| 20260906031419 | 12 | 199 | 0.0 | 3.2 | 0.00 | 0.00 | 0.00 | 90 | 1021.0 |
| 20260906031405 | 12 | 202 | 0.0 | 3.2 | 0.00 | 0.00 | 0.00 | 91 | 1021.0 |
| 20260906031356 | 12 | 211 | 0.0 | 3.2 | 0.00 | 0.00 | 0.00 | 90 | 1021.1 |
| 20260906031340 | 12 | 199 | 0.0 | 3.2 | 0.00 | 0.00 | 0.00 | 90 | 1021.1 |
| 20260906031103 | 12 | 198 | 0.0 | 3.2 | 0.00 | 0.00 | 0.00 | 90 | 1021.0 |
| 20260906030828 | 12 | 230 | 1.6 | 3.2 | 0.00 | 0.00 | 0.00 | 91 | 1021.0 |
| 20260906030819 | 12 | 198 | 0.0 | 3.2 | 0.00 | 0.00 | 0.00 | 91 | 1020.9 |
| 20260906030803 | 12 | 193 | 0.0 | 3.2 | 0.00 | 0.00 | 0.00 | 91 | 1020.8 |
| 20260906030747 | 12 | 196 | 0.0 | 1.6 | 0.00 | 0.00 | 0.00 | 91 | 1021.1 |
| 20260906030730 | 12 | 196 | 0.0 | 1.6 | 0.00 | 0.00 | 0.00 | 91 | 1021.0 |
| 20260906030714 | 12 | 199 | 0.0 | 1.6 | 0.00 | 0.00 | 0.00 | 91 | 1021.1 |
| 20260906030435 | 12 | 196 | 0.0 | 1.6 | 0.00 | 0.00 | 0.00 | 91 | 1021.1 |
| 20260906030419 | 12 | 203 | 0.0 | 1.6 | 0.00 | 0.00 | 0.00 | 91 | 1021.0 |
| 20260906025923 | 12 | 199 | 0.0 | 1.6 | 0.00 | 0.00 | 0.00 | 91 | 1021.2 |
| 20260906025652 | 12 | 198 | 0.0 | 1.6 | 0.00 | 0.00 | 0.00 | 91 | 1020.9 |
| 20260906025645 | 12 | 201 | 0.0 | 1.6 | 0.00 | 0.00 | 0.00 | 91 | 1021.1 |
| 20260906025629 | 12 | 203 | 0.0 | 1.6 | 0.00 | 0.00 | 0.00 | 91 | 1020.8 |
| 20260906025614 | 12 | 196 | 0.0 | 1.6 | 0.00 | 0.00 | 0.00 | 91 | 1021.0 |
| 20260906025558 | 12 | 204 | 0.0 | 1.6 | 0.00 | 0.00 | 0.00 | 91 | 1021.0 |
| 20260906025529 | 12 | 200 | 0.0 | 1.6 | 0.00 | 0.00 | 0.00 | 91 | 1021.1 |
| 20260906025259 | 12 | 202 | 0.0 | 1.6 | 0.00 | 0.00 | 0.00 | 91 | 1020.9 |
| 20260906025243 | 12 | 208 | 0.0 | 1.6 | 0.00 | 0.00 | 0.00 | 91 | 1020.8 |
| 20260906025228 | 12 | 193 | 0.0 | 1.6 | 0.00 | 0.00 | 0.00 | 91 | 1020.8 |
| 20260906024740 | 12 | 199 | 0.0 | 1.6 | 0.00 | 0.00 | 0.00 | 91 | 1021.0 |
| 20260906024500 | 12 | 201 | 0.0 | 1.6 | 0.00 | 0.00 | 0.00 | 91 | 1020.9 |
| 20260906024452 | 12 | 201 | 0.0 | 1.6 | 0.00 | 0.00 | 0.00 | 91 | 1020.9 |
| 20260906024435 | 12 | 196 | 0.0 | 1.6 | 0.00 | 0.00 | 0.00 | 91 | 1021.0 |
| 20260906024420 | 12 | 193 | 0.0 | 1.6 | 0.00 | 0.00 | 0.00 | 91 | 1020.9 |
| 20260906024119 | 12 | 211 | 0.0 | 1.6 | 0.00 | 0.00 | 0.00 | 91 | 1020.8 |
| 20260906024019 | 12 | 192 | 0.0 | 0.0 | 0.00 | 0.00 | 0.00 | 91 | 1020.6 |
| 20260906023920 | 12 | 191 | 0.0 | 0.0 | 0.00 | 0.00 | 0.00 | 91 | 1020.9 |
| 20260906023819 | 12 | 199 | 0.0 | 0.0 | 0.00 | 0.00 | 0.00 | 91 | 1020.8 |
| 20260906023720 | 12 | 197 | 0.0 | 0.0 | 0.00 | 0.00 | 0.00 | 90 | 1021.0 |
| 20260906023704 | 12 | 191 | 0.0 | 0.0 | 0.00 | 0.00 | 0.00 | 90 | 1021.0 |
| 20260906023620 | 12 | 193 | 0.0 | 1.6 | 0.00 | 0.00 | 0.00 | 90 | 1020.7 |
| 20260906023508 | 12 | 195 | 0.0 | 1.6 | 0.00 | 0.00 | 0.00 | 90 | 1020.8 |
| 20260906023407 | 12 | 196 | 0.0 | 1.6 | 0.00 | 0.00 | 0.00 | 90 | 1021.0 |
| 20260906023307 | 12 | 193 | 0.0 | 1.6 | 0.00 | 0.00 | 0.00 | 90 | 1020.7 |
| 20260906023208 | 12 | 198 | 0.0 | 1.6 | 0.00 | 0.00 | 0.00 | 90 | 1021.0 |
| 20260906023108 | 12 | 199 | 0.0 | 1.6 | 0.00 | 0.00 | 0.00 | 90 | 1020.7 |
| 20260906023007 | 12 | 196 | 0.0 | 1.6 | 0.00 | 0.00 | 0.00 | 90 | 1020.8 |
| 20260906022907 | 12 | 197 | 0.0 | 1.6 | 0.00 | 0.00 | 0.00 | 90 | 1020.7 |
| 20260906022808 | 12 | 196 | 0.0 | 1.6 | 0.00 | 0.00 | 0.00 | 90 | 1020.7 |
| 20260906022744 | 12 | 201 | 0.0 | 1.6 | 0.00 | 0.00 | 0.00 | 90 | 1020.8 |
| 20260906022727 | 12 | 201 | 0.0 | 1.6 | 0.00 | 0.00 | 0.00 | 90 | 1020.6 |
| 20260906022711 | 12 | 191 | 0.0 | 1.6 | 0.00 | 0.00 | 0.00 | 90 | 1020.6 |
| 20260906022434 | 12 | 195 | 0.0 | 1.6 | 0.00 | 0.00 | 0.00 | 90 | 1020.7 |
| 20260906022207 | 12 | 189 | 0.0 | 1.6 | 0.00 | 0.00 | 0.00 | 90 | 1020.8 |
| 20260906022106 | 12 | 194 | 0.0 | 1.6 | 0.00 | 0.00 | 0.00 | 90 | 1020.7 |
| 20260906022007 | 12 | 192 | 0.0 | 1.6 | 0.00 | 0.00 | 0.00 | 90 | 1020.8 |
| 20260906021906 | 12 | 184 | 0.0 | 1.6 | 0.00 | 0.00 | 0.00 | 90 | 1020.8 |
| 20260906021807 | 12 | 192 | 0.0 | 1.6 | 0.00 | 0.00 | 0.00 | 90 | 1020.6 |
| 20260906021707 | 12 | 195 | 0.0 | 1.6 | 0.00 | 0.00 | 0.00 | 90 | 1020.9 |
| 20260906021648 | 12 | 194 | 0.0 | 3.2 | 0.00 | 0.00 | 0.00 | 90 | 1020.7 |
| 20260906021640 | 12 | 194 | 0.0 | 3.2 | 0.00 | 0.00 | 0.00 | 90 | 1020.9 |
| 20260906021625 | 12 | 192 | 0.0 | 3.2 | 0.00 | 0.00 | 0.00 | 90 | 1020.8 |
| 20260906021609 | 12 | 200 | 0.0 | 3.2 | 0.00 | 0.00 | 0.00 | 90 | 1020.8 |
| 20260906021553 | 12 | 196 | 0.0 | 3.2 | 0.00 | 0.00 | 0.00 | 90 | 1020.6 |
| 20260906021536 | 12 | 194 | 0.0 | 3.2 | 0.00 | 0.00 | 0.00 | 90 | 1020.7 |
| 20260906021308 | 12 | 190 | 0.0 | 3.2 | 0.00 | 0.00 | 0.00 | 90 | 1020.7 |
| 20260906021044 | 12 | 195 | 0.0 | 3.2 | 0.00 | 0.00 | 0.00 | 90 | 1020.5 |
| 20260906021028 | 12 | 196 | 0.0 | 3.2 | 0.00 | 0.00 | 0.00 | 90 | 1020.6 |
| 20260906021013 | 12 | 151 | 0.0 | 3.2 | 0.00 | 0.00 | 0.00 | 90 | 1020.7 |
| 20260906020948 | 12 | 221 | 1.6 | 3.2 | 0.00 | 0.00 | 0.00 | 90 | 1020.6 |
| 20260906020712 | 12 | 213 | 1.6 | 3.2 | 0.00 | 0.00 | 0.00 | 90 | 1020.6 |
| 20260906020448 | 12 | 192 | 0.0 | 3.2 | 0.00 | 0.00 | 0.00 | 90 | 1020.6 |
| 20260906020433 | 12 | 192 | 0.0 | 3.2 | 0.00 | 0.00 | 0.00 | 90 | 1020.7 |
| 20260906020416 | 12 | 192 | 0.0 | 3.2 | 0.00 | 0.00 | 0.00 | 90 | 1020.9 |
| 20260906020108 | 12 | 223 | 1.6 | 3.2 | 0.00 | 0.00 | 0.00 | 90 | 1020.6 |
| 20260906020007 | 12 | 205 | 0.0 | 1.6 | 0.00 | 0.00 | 0.00 | 90 | 1020.6 |
| 20260906015907 | 12 | 195 | 0.0 | 3.2 | 0.00 | 0.00 | 0.00 | 90 | 1020.5 |
| 20260906015807 | 12 | 199 | 0.0 | 3.2 | 0.00 | 0.00 | 0.00 | 90 | 1020.5 |
| 20260906015708 | 12 | 186 | 0.0 | 3.2 | 0.00 | 0.00 | 0.00 | 90 | 1020.7 |
| 20260906015607 | 12 | 210 | 0.0 | 3.2 | 0.00 | 0.00 | 0.00 | 91 | 1020.4 |
| 20260906015507 | 12 | 191 | 0.0 | 3.2 | 0.00 | 0.00 | 0.00 | 91 | 1020.5 |
| 20260906015407 | 12 | 184 | 0.0 | 3.2 | 0.00 | 0.00 | 0.00 | 91 | 1020.4 |
| 20260906015354 | 12 | 187 | 0.0 | 4.8 | 0.00 | 0.00 | 0.00 | 91 | 1020.7 |
| 20260906015348 | 12 | 180 | 0.0 | 4.8 | 0.00 | 0.00 | 0.00 | 92 | 1020.4 |
| 20260906015340 | 12 | 196 | 0.0 | 3.2 | 0.00 | 0.00 | 0.00 | 91 | 1020.4 |
| 20260906015317 | 12 | 198 | 0.0 | 3.2 | 0.00 | 0.00 | 0.00 | 91 | 1020.5 |
| 20260906015305 | 12 | 164 | 0.0 | 3.2 | 0.00 | 0.00 | 0.00 | 91 | 1020.5 |
| 20260906015026 | 12 | 205 | 1.6 | 3.2 | 0.00 | 0.00 | 0.00 | 91 | 1020.6 |
| 20260906015010 | 12 | 195 | 0.0 | 4.8 | 0.00 | 0.00 | 0.00 | 91 | 1020.4 |
| 20260906014951 | 12 | 187 | 0.0 | 4.8 | 0.00 | 0.00 | 0.00 | 91 | 1020.7 |
| 20260906014725 | 12 | 190 | 0.0 | 4.8 | 0.00 | 0.00 | 0.00 | 91 | 1020.4 |
| 20260906014708 | 12 | 49 | 1.6 | 4.8 | 0.00 | 0.00 | 0.00 | 91 | 1020.6 |
| 20260906014433 | 12 | 189 | 0.0 | 4.8 | 0.00 | 0.00 | 0.00 | 92 | 1020.6 |
| 20260906014416 | 12 | 180 | 0.0 | 4.8 | 0.00 | 0.00 | 0.00 | 92 | 1020.4 |
| 20260906014144 | 12 | 173 | 1.6 | 4.8 | 0.00 | 0.00 | 0.00 | 92 | 1020.4 |
| 20260906014128 | 12 | 207 | 0.0 | 4.8 | 0.00 | 0.00 | 0.00 | 92 | 1020.5 |
| 20260906013809 | 12 | 202 | 0.0 | 3.2 | 0.00 | 0.00 | 0.00 | 92 | 1020.6 |
| 20260906013707 | 12 | 173 | 0.0 | 3.2 | 0.00 | 0.00 | 0.00 | 92 | 1020.6 |
| 20260906013608 | 12 | 196 | 0.0 | 3.2 | 0.00 | 0.00 | 0.00 | 92 | 1020.4 |
| 20260906013507 | 12 | 188 | 0.0 | 3.2 | 0.00 | 0.00 | 0.00 | 92 | 1020.4 |
| 20260906013442 | 12 | 162 | 0.0 | 3.2 | 0.00 | 0.00 | 0.00 | 92 | 1020.6 |
| 20260906013426 | 12 | 191 | 1.6 | 3.2 | 0.00 | 0.00 | 0.00 | 92 | 1020.4 |
| 20260906013404 | 12 | 196 | 0.0 | 1.6 | 0.00 | 0.00 | 0.00 | 92 | 1020.5 |
| 20260906013349 | 12 | 191 | 0.0 | 1.6 | 0.00 | 0.00 | 0.00 | 92 | 1020.6 |
| 20260906013113 | 12 | 182 | 0.0 | 3.2 | 0.00 | 0.00 | 0.00 | 92 | 1020.3 |
| 20260906013057 | 12 | 186 | 0.0 | 3.2 | 0.00 | 0.00 | 0.00 | 92 | 1020.5 |
| 20260906012828 | 12 | 191 | 0.0 | 3.2 | 0.00 | 0.00 | 0.00 | 92 | 1020.3 |
| 20260906012507 | 12 | 199 | 0.0 | 3.2 | 0.00 | 0.00 | 0.00 | 93 | 1020.2 |
| 20260906012407 | 12 | 184 | 1.6 | 3.2 | 0.00 | 0.00 | 0.00 | 93 | 1020.4 |
| 20260906012356 | 13 | 200 | 0.0 | 1.6 | 0.00 | 0.00 | 0.00 | 93 | 1020.2 |
| 20260906012345 | 12 | 196 | 0.0 | 3.2 | 0.00 | 0.00 | 0.00 | 93 | 1020.4 |
| 20260906012323 | 12 | 211 | 1.6 | 3.2 | 0.00 | 0.00 | 0.00 | 93 | 1020.4 |
| 20260906012307 | 12 | 199 | 0.0 | 3.2 | 0.00 | 0.00 | 0.00 | 93 | 1020.4 |
| 20260906012032 | 12 | 199 | 1.6 | 3.2 | 0.00 | 0.00 | 0.00 | 93 | 1020.4 |
| 20260906011808 | 12 | 192 | 0.0 | 1.6 | 0.00 | 0.00 | 0.00 | 93 | 1020.1 |
| 20260906011744 | 12 | 190 | 0.0 | 1.6 | 0.00 | 0.00 | 0.00 | 93 | 1020.5 |
| 20260906011728 | 12 | 192 | 1.6 | 1.6 | 0.00 | 0.00 | 0.00 | 93 | 1020.3 |
| 20260906011451 | 13 | 191 | 0.0 | 1.6 | 0.00 | 0.00 | 0.00 | 93 | 1020.3 |
| 20260906011434 | 13 | 196 | 0.0 | 1.6 | 0.00 | 0.00 | 0.00 | 93 | 1020.1 |
| 20260906011416 | 13 | 200 | 0.0 | 1.6 | 0.00 | 0.00 | 0.00 | 93 | 1020.2 |
| 20260906011107 | 13 | 193 | 0.0 | 1.6 | 0.00 | 0.00 | 0.00 | 93 | 1020.3 |
| 20260906011042 | 13 | 198 | 0.0 | 1.6 | 0.00 | 0.00 | 0.00 | 93 | 1020.2 |
| 20260906011026 | 13 | 205 | 1.6 | 1.6 | 0.00 | 0.00 | 0.00 | 93 | 1020.4 |
| 20260906011011 | 13 | 203 | 0.0 | 1.6 | 0.00 | 0.00 | 0.00 | 93 | 1020.4 |
| 20260906010946 | 13 | 199 | 0.0 | 1.6 | 0.00 | 0.00 | 0.00 | 93 | 1020.3 |
| 20260906010930 | 13 | 196 | 0.0 | 1.6 | 0.00 | 0.00 | 0.00 | 93 | 1020.3 |
| 20260906010914 | 13 | 196 | 0.0 | 1.6 | 0.00 | 0.00 | 0.00 | 93 | 1020.3 |
| 20260906010207 | 13 | 195 | 0.0 | 1.6 | 0.00 | 0.00 | 0.00 | 93 | 1020.3 |
| 20260906010108 | 13 | 194 | 0.0 | 1.6 | 0.00 | 0.00 | 0.00 | 93 | 1020.2 |
| 20260906010007 | 13 | 204 | 0.0 | 1.6 | 0.00 | 0.00 | 0.00 | 93 | 1020.4 |
| 20260906005907 | 13 | 198 | 0.0 | 1.6 | 0.00 | 0.00 | 0.00 | 93 | 1020.4 |
| 20260906005806 | 13 | 191 | 0.0 | 1.6 | 0.00 | 0.00 | 0.00 | 93 | 1020.4 |
| 20260906005707 | 13 | 199 | 0.0 | 1.6 | 0.00 | 0.00 | 0.00 | 93 | 1020.3 |
| 20260906005608 | 13 | 205 | 0.0 | 1.6 | 0.00 | 0.00 | 0.00 | 93 | 1020.2 |
| 20260906005507 | 13 | 199 | 0.0 | 1.6 | 0.00 | 0.00 | 0.00 | 93 | 1020.5 |
| 20260906005408 | 13 | 195 | 0.0 | 1.6 | 0.00 | 0.00 | 0.00 | 93 | 1020.3 |
| 20260906005307 | 13 | 205 | 0.0 | 1.6 | 0.00 | 0.00 | 0.00 | 93 | 1020.2 |
| 20260906005206 | 13 | 194 | 0.0 | 1.6 | 0.00 | 0.00 | 0.00 | 93 | 1020.5 |
| 20260906005108 | 13 | 193 | 0.0 | 1.6 | 0.00 | 0.00 | 0.00 | 93 | 1020.2 |
| 20260906005007 | 13 | 192 | 0.0 | 1.6 | 0.00 | 0.00 | 0.00 | 93 | 1020.4 |
| 20260906004907 | 13 | 198 | 0.0 | 1.6 | 0.00 | 0.00 | 0.00 | 93 | 1020.3 |
| 20260906004807 | 13 | 196 | 0.0 | 1.6 | 0.00 | 0.00 | 0.00 | 93 | 1020.2 |
| 20260906004706 | 13 | 192 | 0.0 | 1.6 | 0.00 | 0.00 | 0.00 | 93 | 1020.4 |
| 20260906004228 | 13 | 198 | 0.0 | 1.6 | 0.00 | 0.00 | 0.00 | 93 | 1020.6 |
| 20260906004156 | 13 | 196 | 0.0 | 1.6 | 0.00 | 0.00 | 0.00 | 93 | 1020.2 |
| 20260906003903 | 13 | 199 | 0.0 | 1.6 | 0.00 | 0.00 | 0.00 | 93 | 1020.2 |
| 20260906003811 | 13 | 196 | 0.0 | 1.6 | 0.00 | 0.00 | 0.00 | 93 | 1020.4 |
| 20260906003804 | 13 | 197 | 0.0 | 1.6 | 0.00 | 0.00 | 0.00 | 93 | 1020.1 |
| 20260906003747 | 13 | 201 | 0.0 | 1.6 | 0.00 | 0.00 | 0.00 | 93 | 1020.1 |
| 20260906003740 | 13 | 203 | 0.0 | 1.6 | 0.00 | 0.00 | 0.00 | 93 | 1020.1 |
| 20260906003725 | 13 | 197 | 0.0 | 1.6 | 0.00 | 0.00 | 0.00 | 93 | 1020.2 |
| 20260906003448 | 13 | 198 | 0.0 | 1.6 | 0.00 | 0.00 | 0.00 | 93 | 1020.2 |
| 20260906003432 | 13 | 204 | 0.0 | 1.6 | 0.00 | 0.00 | 0.00 | 93 | 1020.4 |
| 20260906003204 | 13 | 194 | 0.0 | 1.6 | 0.00 | 0.00 | 0.00 | 93 | 1020.5 |
| 20260906003103 | 13 | 201 | 0.0 | 1.6 | 0.00 | 0.00 | 0.00 | 93 | 1020.2 |
| 20260906003040 | 13 | 205 | 0.0 | 1.6 | 0.00 | 0.00 | 0.00 | 93 | 1020.0 |
| 20260906003024 | 13 | 201 | 0.0 | 1.6 | 0.00 | 0.00 | 0.00 | 93 | 1020.2 |
| 20260906002711 | 13 | 186 | 0.0 | 1.6 | 0.00 | 0.00 | 0.00 | 93 | 1020.2 |
| 20260906002704 | 13 | 186 | 0.0 | 1.6 | 0.00 | 0.00 | 0.00 | 93 | 1020.4 |
| 20260906002603 | 13 | 189 | 0.0 | 1.6 | 0.00 | 0.00 | 0.00 | 93 | 1020.1 |
| 20260906002504 | 13 | 199 | 0.0 | 1.6 | 0.00 | 0.00 | 0.00 | 93 | 1020.1 |
| 20260906002445 | 13 | 194 | 0.0 | 1.6 | 0.00 | 0.00 | 0.00 | 94 | 1020.1 |
| 20260906002429 | 13 | 193 | 0.0 | 1.6 | 0.00 | 0.00 | 0.00 | 94 | 1020.2 |
| 20260906002413 | 13 | 194 | 0.0 | 1.6 | 0.00 | 0.00 | 0.00 | 94 | 1020.2 |
| 20260906002103 | 13 | 199 | 0.0 | 1.6 | 0.00 | 0.00 | 0.00 | 94 | 1020.3 |
| 20260906002003 | 13 | 199 | 0.0 | 1.6 | 0.00 | 0.00 | 0.00 | 94 | 1020.0 |
| 20260906001903 | 13 | 199 | 0.0 | 1.6 | 0.00 | 0.00 | 0.00 | 94 | 1020.1 |
| 20260906001803 | 13 | 190 | 0.0 | 1.6 | 0.00 | 0.00 | 0.00 | 94 | 1020.2 |
| 20260906001724 | 13 | 188 | 0.0 | 1.6 | 0.00 | 0.00 | 0.00 | 94 | 1020.2 |
| 20260906001702 | 13 | 188 | 0.0 | 1.6 | 0.00 | 0.00 | 0.00 | 94 | 1020.3 |
| 20260906001603 | 13 | 200 | 0.0 | 3.2 | 0.00 | 0.00 | 0.00 | 94 | 1020.4 |
| 20260906001504 | 13 | 203 | 0.0 | 3.2 | 0.00 | 0.00 | 0.00 | 94 | 1020.4 |
| 20260906001403 | 13 | 194 | 0.0 | 3.2 | 0.00 | 0.00 | 0.00 | 94 | 1020.1 |
| 20260906001345 | 13 | 200 | 0.0 | 3.2 | 0.00 | 0.00 | 0.00 | 94 | 1020.0 |
| 20260906001330 | 13 | 198 | 0.0 | 3.2 | 0.00 | 0.00 | 0.00 | 94 | 1020.0 |
| 20260906001323 | 13 | 198 | 0.0 | 3.2 | 0.00 | 0.00 | 0.00 | 94 | 1019.9 |
| 20260906001006 | 13 | 192 | 0.0 | 3.2 | 0.00 | 0.00 | 0.00 | 94 | 1020.0 |
| 20260906000951 | 13 | 192 | 0.0 | 3.2 | 0.00 | 0.00 | 0.00 | 94 | 1020.0 |
| 20260906000935 | 13 | 192 | 0.0 | 3.2 | 0.00 | 0.00 | 0.00 | 94 | 1019.8 |
| 20260906000918 | 13 | 245 | 1.6 | 3.2 | 0.00 | 0.00 | 0.00 | 94 | 1019.8 |
| 20260906000858 | 13 | 245 | 1.6 | 3.2 | 0.00 | 0.00 | 0.00 | 94 | 1019.9 |
| 20260906000623 | 13 | 190 | 0.0 | 3.2 | 0.00 | 0.00 | 0.00 | 94 | 1020.2 |
| 20260906000303 | 13 | 199 | 0.0 | 3.2 | 0.00 | 0.00 | 0.00 | 94 | 1020.0 |
| 20260906000212 | 13 | 197 | 0.0 | 1.6 | 0.00 | 0.00 | 0.00 | 94 | 1020.0 |
| 20260906000204 | 13 | 195 | 0.0 | 1.6 | 0.00 | 0.00 | 0.00 | 94 | 1020.0 |
| 20260906000104 | 13 | 204 | 0.0 | 1.6 | 0.00 | 0.00 | 0.00 | 94 | 1020.2 |
| 20260906000004 | 13 | 192 | 0.0 | 1.6 | 0.00 | 0.00 | 0.00 | 94 | 1020.0 |
| 20260905235903 | 13 | 198 | 0.0 | 1.6 | 0.00 | 0.00 | 0.00 | 94 | 1019.9 |
| 20260905235805 | 13 | 205 | 0.0 | 1.6 | 0.00 | 0.00 | 0.00 | 94 | 1020.2 |
| 20260905235747 | 13 | 194 | 0.0 | 1.6 | 0.00 | 0.00 | 0.00 | 95 | 1020.2 |
| 20260905235741 | 13 | 194 | 0.0 | 1.6 | 0.00 | 0.00 | 0.00 | 95 | 1020.1 |
| 20260905235724 | 13 | 191 | 0.0 | 1.6 | 0.00 | 0.00 | 0.00 | 95 | 1020.1 |
| 20260905235404 | 13 | 199 | 0.0 | 1.6 | 0.00 | 0.00 | 0.00 | 95 | 1020.1 |
| 20260905235322 | 13 | 196 | 0.0 | 1.6 | 0.00 | 0.00 | 0.00 | 95 | 1020.2 |
| 20260905235316 | 13 | 199 | 0.0 | 1.6 | 0.00 | 0.00 | 0.00 | 95 | 1020.0 |
| 20260905235259 | 13 | 192 | 0.0 | 1.6 | 0.00 | 0.00 | 0.00 | 95 | 1020.2 |
| 20260905235023 | 13 | 199 | 0.0 | 1.6 | 0.00 | 0.00 | 0.00 | 95 | 1020.1 |
| 20260905234711 | 13 | 187 | 0.0 | 1.6 | 0.00 | 0.00 | 0.00 | 95 | 1020.1 |
| 20260905234703 | 13 | 187 | 0.0 | 1.6 | 0.00 | 0.00 | 0.00 | 95 | 1020.0 |
| 20260905234603 | 13 | 208 | 0.0 | 1.6 | 0.00 | 0.00 | 0.00 | 95 | 1020.2 |
| 20260905234550 | 13 | 196 | 0.0 | 1.6 | 0.00 | 0.00 | 0.00 | 96 | 1020.1 |
| 20260905234541 | 13 | 191 | 0.0 | 1.6 | 0.00 | 0.00 | 0.00 | 95 | 1020.1 |
| 20260905234525 | 13 | 201 | 0.0 | 1.6 | 0.00 | 0.00 | 0.00 | 95 | 1020.1 |
| 20260905234510 | 13 | 199 | 0.0 | 1.6 | 0.00 | 0.00 | 0.00 | 95 | 1020.2 |
| 20260905234453 | 13 | 194 | 0.0 | 1.6 | 0.00 | 0.00 | 0.00 | 95 | 1020.2 |
| 20260905234227 | 13 | 199 | 0.0 | 1.6 | 0.00 | 0.00 | 0.00 | 95 | 1020.1 |
| 20260905233951 | 13 | 198 | 0.0 | 1.6 | 0.00 | 0.00 | 0.00 | 95 | 1019.9 |
| 20260905233935 | 13 | 193 | 0.0 | 1.6 | 0.00 | 0.00 | 0.00 | 96 | 1020.1 |
| 20260905233703 | 13 | 192 | 1.6 | 1.6 | 0.00 | 0.00 | 0.00 | 96 | 1020.0 |
| 20260905233603 | 13 | 193 | 0.0 | 1.6 | 0.00 | 0.00 | 0.00 | 96 | 1019.9 |
| 20260905233510 | 13 | 189 | 0.0 | 1.6 | 0.00 | 0.00 | 0.00 | 96 | 1020.2 |
| 20260905233504 | 13 | 203 | 0.0 | 1.6 | 0.00 | 0.00 | 0.00 | 96 | 1020.0 |
| 20260905233449 | 13 | 200 | 0.0 | 1.6 | 0.00 | 0.00 | 0.00 | 96 | 1020.0 |
| 20260905233432 | 13 | 190 | 0.0 | 1.6 | 0.00 | 0.00 | 0.00 | 96 | 1020.2 |
| 20260905233205 | 13 | 187 | 0.0 | 1.6 | 0.00 | 0.00 | 0.00 | 96 | 1020.1 |
| 20260905233104 | 13 | 196 | 0.0 | 1.6 | 0.00 | 0.00 | 0.00 | 96 | 1019.9 |
| 20260905233003 | 13 | 195 | 0.0 | 1.6 | 0.00 | 0.00 | 0.00 | 96 | 1019.9 |
| 20260905232903 | 13 | 184 | 0.0 | 3.2 | 0.00 | 0.00 | 0.00 | 96 | 1020.0 |
| 20260905232803 | 13 | 200 | 0.0 | 3.2 | 0.00 | 0.00 | 0.00 | 96 | 1020.1 |
| 20260905232711 | 13 | 191 | 0.0 | 3.2 | 0.00 | 0.00 | 0.00 | 96 | 1020.1 |
| 20260905232703 | 13 | 191 | 0.0 | 3.2 | 0.00 | 0.00 | 0.00 | 96 | 1020.1 |
| 20260905232604 | 13 | 186 | 0.0 | 3.2 | 0.00 | 0.00 | 0.00 | 96 | 1020.0 |
| 20260905232503 | 13 | 193 | 0.0 | 3.2 | 0.00 | 0.00 | 0.00 | 96 | 1020.0 |
| 20260905232403 | 13 | 191 | 0.0 | 3.2 | 0.00 | 0.00 | 0.00 | 96 | 1020.0 |
| 20260905232305 | 13 | 184 | 1.6 | 3.2 | 0.00 | 0.00 | 0.00 | 97 | 1019.9 |
| 20260905232211 | 13 | 199 | 0.0 | 3.2 | 0.00 | 0.00 | 0.00 | 96 | 1019.9 |
| 20260905232204 | 13 | 198 | 0.0 | 3.2 | 0.00 | 0.00 | 0.00 | 96 | 1020.0 |
| 20260905232103 | 12 | 205 | 0.0 | 3.2 | 0.00 | 0.00 | 0.00 | 97 | 1019.9 |
| 20260905232003 | 12 | 192 | 0.0 | 3.2 | 0.00 | 0.00 | 0.00 | 97 | 1020.0 |
| 20260905231904 | 12 | 196 | 0.0 | 3.2 | 0.00 | 0.00 | 0.00 | 97 | 1019.9 |
| 20260905231804 | 12 | 172 | 0.0 | 3.2 | 0.00 | 0.00 | 0.00 | 97 | 1019.9 |
| 20260905231746 | 12 | 178 | 1.6 | 3.2 | 0.00 | 0.00 | 0.00 | 97 | 1020.1 |
| 20260905231739 | 12 | 142 | 0.0 | 3.2 | 0.00 | 0.00 | 0.00 | 97 | 1020.1 |
| 20260905231723 | 12 | 199 | 1.6 | 3.2 | 0.00 | 0.00 | 0.00 | 97 | 1020.0 |
| 20260905231404 | 12 | 185 | 0.0 | 3.2 | 0.00 | 0.00 | 0.00 | 97 | 1020.0 |
| 20260905231325 | 12 | 192 | 0.0 | 1.6 | 0.00 | 0.00 | 0.00 | 97 | 1019.8 |
| 20260905231319 | 12 | 174 | 0.0 | 3.2 | 0.00 | 0.00 | 0.00 | 97 | 1019.8 |
| 20260905231303 | 12 | 196 | 0.0 | 3.2 | 0.00 | 0.00 | 0.00 | 97 | 1019.8 |
| 20260905231256 | 12 | 195 | 0.0 | 3.2 | 0.00 | 0.00 | 0.00 | 97 | 1019.9 |
| 20260905231240 | 12 | 192 | 0.0 | 3.2 | 0.00 | 0.00 | 0.00 | 97 | 1020.0 |
| 20260905231017 | 12 | 192 | 0.0 | 1.6 | 0.00 | 0.00 | 0.00 | 97 | 1019.7 |
| 20260905231013 | 13 | 188 | 0.0 | 3.2 | 0.00 | 0.00 | 0.00 | 97 | 1019.9 |
| 20260905231006 | 12 | 175 | 1.6 | 3.2 | 0.00 | 0.00 | 0.00 | 97 | 1019.8 |
| 20260905230955 | 13 | 195 | 0.0 | 3.2 | 0.00 | 0.00 | 0.00 | 97 | 1019.9 |
| 20260905230948 | 12 | 199 | 0.0 | 1.6 | 0.00 | 0.00 | 0.00 | 97 | 1019.8 |
| 20260905230932 | 12 | 196 | 0.0 | 1.6 | 0.00 | 0.00 | 0.00 | 97 | 1020.1 |
| 20260905230914 | 12 | 200 | 0.0 | 1.6 | 0.00 | 0.00 | 0.00 | 97 | 1020.1 |
| 20260905230908 | 12 | 200 | 0.0 | 1.6 | 0.00 | 0.00 | 0.00 | 97 | 1020.0 |
| 20260905230853 | 12 | 198 | 0.0 | 1.6 | 0.00 | 0.00 | 0.00 | 97 | 1020.0 |
| 20260905230836 | 12 | 200 | 0.0 | 1.6 | 0.00 | 0.00 | 0.00 | 97 | 1020.0 |
| 20260905230601 | 12 | 200 | 0.0 | 1.6 | 0.00 | 0.00 | 0.00 | 97 | 1019.8 |
| 20260905230333 | 12 | 195 | 0.0 | 1.6 | 0.00 | 0.00 | 0.00 | 97 | 1019.8 |
| 20260905230317 | 13 | 190 | 0.0 | 1.6 | 0.00 | 0.00 | 0.00 | 97 | 1019.9 |
| 20260905230301 | 12 | 207 | 0.0 | 1.6 | 0.00 | 0.00 | 0.00 | 97 | 1019.6 |
| 20260905230245 | 12 | 193 | 0.0 | 1.6 | 0.00 | 0.00 | 0.00 | 97 | 1019.6 |
| 20260905230230 | 12 | 200 | 0.0 | 1.6 | 0.00 | 0.00 | 0.00 | 97 | 1019.9 |
| 20260905230001 | 12 | 186 | 0.0 | 1.6 | 0.00 | 0.00 | 0.00 | 97 | 1019.7 |
| 20260905225725 | 12 | 195 | 0.0 | 3.2 | 0.00 | 0.00 | 0.00 | 97 | 1020.0 |
| 20260905225449 | 13 | 177 | 1.6 | 3.2 | 0.00 | 0.00 | 0.00 | 97 | 1019.9 |
| 20260905225222 | 13 | 183 | 0.0 | 3.2 | 0.00 | 0.00 | 0.00 | 97 | 1019.8 |
| 20260905225207 | 13 | 200 | 0.0 | 3.2 | 0.00 | 0.00 | 0.00 | 97 | 1019.8 |
| 20260905225151 | 13 | 186 | 0.0 | 3.2 | 0.00 | 0.00 | 0.00 | 97 | 1019.8 |
| 20260905225135 | 13 | 197 | 0.0 | 3.2 | 0.00 | 0.00 | 0.00 | 97 | 1019.8 |
| 20260905225118 | 13 | 199 | 0.0 | 3.2 | 0.00 | 0.00 | 0.00 | 97 | 1019.8 |
| 20260905225100 | 13 | 200 | 0.0 | 3.2 | 0.00 | 0.00 | 0.00 | 97 | 1019.8 |
| 20260905225053 | 13 | 200 | 0.0 | 3.2 | 0.00 | 0.00 | 0.00 | 97 | 1019.8 |
| 20260905225037 | 13 | 200 | 0.0 | 1.6 | 0.00 | 0.00 | 0.00 | 97 | 1019.6 |
| 20260905224801 | 13 | 202 | 0.0 | 3.2 | 0.00 | 0.00 | 0.00 | 97 | 1019.9 |
| 20260905224746 | 13 | 199 | 0.0 | 3.2 | 0.00 | 0.00 | 0.00 | 97 | 1019.9 |
| 20260905224519 | 13 | 194 | 0.0 | 3.2 | 0.00 | 0.00 | 0.00 | 97 | 1019.9 |
| 20260905224243 | 13 | 194 | 0.0 | 3.2 | 0.00 | 0.00 | 0.00 | 97 | 1019.5 |
| 20260905223747 | 13 | 190 | 0.0 | 1.6 | 0.00 | 0.00 | 0.00 | 97 | 1019.8 |
| 20260905223741 | 13 | 199 | 0.0 | 1.6 | 0.00 | 0.00 | 0.00 | 97 | 1019.9 |
| 20260905223731 | 13 | 198 | 0.0 | 3.2 | 0.00 | 0.00 | 0.00 | 97 | 1019.7 |
| 20260905223724 | 13 | 204 | 0.0 | 3.2 | 0.00 | 0.00 | 0.00 | 97 | 1019.7 |
| 20260905223708 | 13 | 199 | 0.0 | 3.2 | 0.00 | 0.00 | 0.00 | 97 | 1020.1 |
| 20260905223652 | 13 | 197 | 0.0 | 3.2 | 0.00 | 0.00 | 0.00 | 97 | 1020.1 |
| 20260905223635 | 13 | 199 | 0.0 | 3.2 | 0.00 | 0.00 | 0.00 | 97 | 1019.8 |
| 20260905223359 | 13 | 186 | 0.0 | 3.2 | 0.00 | 0.00 | 0.00 | 97 | 1020.0 |
| 20260905223352 | 13 | 196 | 0.0 | 3.2 | 0.00 | 0.00 | 0.00 | 97 | 1020.0 |
| 20260905223337 | 13 | 203 | 0.0 | 3.2 | 0.00 | 0.00 | 0.00 | 97 | 1020.0 |
| 20260905223320 | 13 | 206 | 0.0 | 1.6 | 0.00 | 0.00 | 0.00 | 97 | 1019.8 |
| 20260905223304 | 13 | 196 | 0.0 | 1.6 | 0.00 | 0.00 | 0.00 | 97 | 1019.7 |
| 20260905223248 | 13 | 206 | 0.0 | 1.6 | 0.00 | 0.00 | 0.00 | 97 | 1019.8 |
| 20260905223019 | 13 | 185 | 0.0 | 1.6 | 0.00 | 0.00 | 0.00 | 97 | 1019.7 |
| 20260905223004 | 13 | 194 | 0.0 | 1.6 | 0.00 | 0.00 | 0.00 | 97 | 1019.7 |
| 20260905222947 | 13 | 196 | 0.0 | 1.6 | 0.00 | 0.00 | 0.00 | 97 | 1019.8 |
| 20260905222710 | 13 | 198 | 0.0 | 1.6 | 0.00 | 0.00 | 0.00 | 97 | 1019.9 |
| 20260905222223 | 13 | 196 | 0.0 | 1.6 | 0.00 | 0.00 | 0.00 | 97 | 1019.8 |
| 20260905221902 | 13 | 194 | 0.0 | 1.6 | 0.00 | 0.00 | 0.00 | 97 | 1020.0 |
| 20260905221802 | 13 | 194 | 0.0 | 1.6 | 0.00 | 0.00 | 0.00 | 97 | 1019.8 |
| 20260905221710 | 13 | 193 | 0.0 | 1.6 | 0.00 | 0.00 | 0.00 | 97 | 1019.8 |
| 20260905221702 | 13 | 196 | 0.0 | 1.6 | 0.00 | 0.00 | 0.00 | 97 | 1019.8 |
| 20260905221602 | 13 | 196 | 0.0 | 1.6 | 0.00 | 0.00 | 0.00 | 97 | 1020.0 |
| 20260905221503 | 13 | 200 | 0.0 | 1.6 | 0.00 | 0.00 | 0.00 | 97 | 1019.6 |
| 20260905221403 | 13 | 198 | 0.0 | 1.6 | 0.00 | 0.00 | 0.00 | 97 | 1019.8 |
| 20260905221329 | 13 | 199 | 0.0 | 1.6 | 0.00 | 0.00 | 0.00 | 97 | 1020.0 |
| 20260905221322 | 13 | 199 | 0.0 | 1.6 | 0.00 | 0.00 | 0.00 | 97 | 1019.7 |
| 20260905221038 | 13 | 199 | 0.0 | 1.6 | 0.00 | 0.00 | 0.00 | 97 | 1019.8 |
| 20260905221023 | 13 | 203 | 0.0 | 1.6 | 0.00 | 0.00 | 0.00 | 97 | 1019.7 |
| 20260905220710 | 13 | 196 | 0.0 | 1.6 | 0.00 | 0.00 | 0.00 | 97 | 1019.9 |
| 20260905220702 | 13 | 196 | 0.0 | 1.6 | 0.00 | 0.00 | 0.00 | 97 | 1019.8 |
| 20260905220601 | 13 | 192 | 0.0 | 1.6 | 0.00 | 0.00 | 0.00 | 96 | 1019.8 |
| 20260905220503 | 13 | 199 | 0.0 | 1.6 | 0.00 | 0.00 | 0.00 | 96 | 1019.9 |
| 20260905220402 | 13 | 196 | 0.0 | 1.6 | 0.00 | 0.00 | 0.00 | 96 | 1019.9 |
| 20260905220335 | 13 | 196 | 0.0 | 0.0 | 0.00 | 0.00 | 0.00 | 96 | 1019.9 |
| 20260905220319 | 13 | 199 | 0.0 | 0.0 | 0.00 | 0.00 | 0.00 | 96 | 1019.6 |
| 20260905220312 | 13 | 199 | 0.0 | 1.6 | 0.00 | 0.00 | 0.00 | 96 | 1019.8 |
| 20260905220258 | 13 | 202 | 0.0 | 1.6 | 0.00 | 0.00 | 0.00 | 96 | 1019.7 |
| 20260905220242 | 13 | 200 | 0.0 | 1.6 | 0.00 | 0.00 | 0.00 | 96 | 1019.9 |
| 20260905215709 | 13 | 200 | 0.0 | 1.6 | 0.00 | 0.00 | 0.00 | 96 | 1019.7 |
| 20260905215702 | 13 | 200 | 0.0 | 1.6 | 0.00 | 0.00 | 0.00 | 96 | 1019.9 |
| 20260905215602 | 13 | 196 | 0.0 | 1.6 | 0.00 | 0.00 | 0.00 | 96 | 1019.8 |
| 20260905215502 | 13 | 196 | 0.0 | 1.6 | 0.00 | 0.00 | 0.00 | 96 | 1019.8 |
| 20260905215402 | 13 | 196 | 0.0 | 1.6 | 0.00 | 0.00 | 0.00 | 96 | 1019.8 |
| 20260905215344 | 13 | 191 | 0.0 | 1.6 | 0.00 | 0.00 | 0.00 | 96 | 1019.8 |
| 20260905215328 | 13 | 207 | 0.0 | 1.6 | 0.00 | 0.00 | 0.00 | 96 | 1019.8 |
| 20260905215322 | 13 | 199 | 0.0 | 1.6 | 0.00 | 0.00 | 0.00 | 96 | 1019.8 |
| 20260905215039 | 13 | 198 | 0.0 | 1.6 | 0.00 | 0.00 | 0.00 | 96 | 1019.8 |
| 20260905215024 | 13 | 187 | 0.0 | 1.6 | 0.00 | 0.00 | 0.00 | 96 | 1020.1 |
| 20260905214710 | 13 | 211 | 1.6 | 1.6 | 0.00 | 0.00 | 0.00 | 96 | 1019.9 |
| 20260905214702 | 13 | 199 | 0.0 | 1.6 | 0.00 | 0.00 | 0.00 | 96 | 1019.9 |
| 20260905214602 | 13 | 197 | 0.0 | 1.6 | 0.00 | 0.00 | 0.00 | 96 | 1019.9 |
| 20260905214550 | 13 | 199 | 0.0 | 1.6 | 0.00 | 0.00 | 0.00 | 96 | 1019.8 |
| 20260905214546 | 13 | 199 | 0.0 | 1.6 | 0.00 | 0.00 | 0.00 | 95 | 1019.7 |
| 20260905214538 | 13 | 197 | 0.0 | 1.6 | 0.00 | 0.00 | 0.00 | 96 | 1019.8 |
| 20260905214521 | 13 | 198 | 0.0 | 1.6 | 0.00 | 0.00 | 0.00 | 96 | 1019.9 |
| 20260905214505 | 13 | 199 | 0.0 | 1.6 | 0.00 | 0.00 | 0.00 | 96 | 1019.8 |
| 20260905214239 | 13 | 192 | 0.0 | 1.6 | 0.00 | 0.00 | 0.00 | 96 | 1020.0 |
| 20260905214223 | 13 | 207 | 0.0 | 1.6 | 0.00 | 0.00 | 0.00 | 96 | 1019.7 |
| 20260905213947 | 13 | 194 | 0.0 | 1.6 | 0.00 | 0.00 | 0.00 | 96 | 1019.9 |
| 20260905213932 | 13 | 190 | 0.0 | 1.6 | 0.00 | 0.00 | 0.00 | 95 | 1019.9 |
| 20260905213702 | 13 | 199 | 0.0 | 1.6 | 0.00 | 0.00 | 0.00 | 95 | 1019.6 |
| 20260905213640 | 13 | 196 | 0.0 | 1.6 | 0.00 | 0.00 | 0.00 | 95 | 1019.7 |
| 20260905213623 | 13 | 196 | 0.0 | 1.6 | 0.00 | 0.00 | 0.00 | 95 | 1019.8 |
| 20260905213302 | 13 | 200 | 0.0 | 1.6 | 0.00 | 0.00 | 0.00 | 95 | 1019.8 |
| 20260905213210 | 13 | 200 | 0.0 | 1.6 | 0.00 | 0.00 | 0.00 | 95 | 1019.8 |
| 20260905213202 | 13 | 197 | 0.0 | 1.6 | 0.00 | 0.00 | 0.00 | 95 | 1019.7 |
| 20260905213102 | 13 | 178 | 0.0 | 1.6 | 0.00 | 0.00 | 0.00 | 95 | 1019.7 |
| 20260905213002 | 13 | 196 | 0.0 | 1.6 | 0.00 | 0.00 | 0.00 | 95 | 1019.7 |
| 20260905212901 | 13 | 198 | 0.0 | 1.6 | 0.00 | 0.00 | 0.00 | 95 | 1019.6 |
| 20260905212802 | 13 | 196 | 0.0 | 1.6 | 0.00 | 0.00 | 0.00 | 95 | 1019.6 |
| 20260905212710 | 13 | 202 | 0.0 | 1.6 | 0.00 | 0.00 | 0.00 | 95 | 1019.6 |
| 20260905212702 | 13 | 204 | 0.0 | 1.6 | 0.00 | 0.00 | 0.00 | 95 | 1019.8 |
| 20260905212636 | 13 | 196 | 0.0 | 0.0 | 0.00 | 0.00 | 0.00 | 95 | 1019.8 |
| 20260905212621 | 13 | 199 | 0.0 | 0.0 | 0.00 | 0.00 | 0.00 | 95 | 1019.8 |
| 20260905212319 | 13 | 199 | 0.0 | 0.0 | 0.00 | 0.00 | 0.00 | 95 | 1019.6 |
| 20260905212312 | 13 | 199 | 0.0 | 0.0 | 0.00 | 0.00 | 0.00 | 95 | 1019.7 |
| 20260905212257 | 13 | 196 | 0.0 | 0.0 | 0.00 | 0.00 | 0.00 | 94 | 1019.9 |
| 20260905212021 | 13 | 196 | 0.0 | 0.0 | 0.00 | 0.00 | 0.00 | 94 | 1019.6 |
| 20260905212005 | 13 | 198 | 0.0 | 0.0 | 0.00 | 0.00 | 0.00 | 94 | 1019.6 |
| 20260905211947 | 13 | 199 | 0.0 | 0.0 | 0.00 | 0.00 | 0.00 | 94 | 1019.7 |
| 20260905211721 | 13 | 198 | 0.0 | 0.0 | 0.00 | 0.00 | 0.00 | 94 | 1019.7 |
| 20260905211705 | 13 | 188 | 0.0 | 0.0 | 0.00 | 0.00 | 0.00 | 94 | 1019.5 |
| 20260905211649 | 13 | 201 | 0.0 | 0.0 | 0.00 | 0.00 | 0.00 | 94 | 1019.3 |
| 20260905211413 | 13 | 196 | 0.0 | 3.2 | 0.00 | 0.00 | 0.00 | 94 | 1019.6 |
| 20260905211102 | 13 | 198 | 0.0 | 3.2 | 0.00 | 0.00 | 0.00 | 94 | 1019.6 |
| 20260905211001 | 13 | 196 | 0.0 | 3.2 | 0.00 | 0.00 | 0.00 | 94 | 1019.7 |
| 20260905210902 | 13 | 195 | 0.0 | 3.2 | 0.00 | 0.00 | 0.00 | 93 | 1019.7 |
| 20260905210840 | 13 | 196 | 0.0 | 3.2 | 0.00 | 0.00 | 0.00 | 93 | 1019.6 |
| 20260905210821 | 13 | 200 | 0.0 | 3.2 | 0.00 | 0.00 | 0.00 | 93 | 1019.6 |
| 20260905210815 | 13 | 196 | 0.0 | 3.2 | 0.00 | 0.00 | 0.00 | 93 | 1019.4 |
| 20260905210759 | 13 | 195 | 0.0 | 3.2 | 0.00 | 0.00 | 0.00 | 93 | 1019.4 |
| 20260905210744 | 13 | 196 | 0.0 | 3.2 | 0.00 | 0.00 | 0.00 | 93 | 1019.6 |
| 20260905210727 | 13 | 198 | 0.0 | 3.2 | 0.00 | 0.00 | 0.00 | 93 | 1019.6 |
| 20260905210450 | 13 | 201 | 0.0 | 3.2 | 0.00 | 0.00 | 0.00 | 92 | 1019.6 |
| 20260905210224 | 13 | 209 | 0.0 | 3.2 | 0.00 | 0.00 | 0.00 | 92 | 1019.8 |
| 20260905210208 | 13 | 192 | 0.0 | 3.2 | 0.00 | 0.00 | 0.00 | 92 | 1019.7 |
| 20260905210152 | 13 | 203 | 0.0 | 3.2 | 0.00 | 0.00 | 0.00 | 92 | 1019.8 |
| 20260905205914 | 13 | 137 | 0.0 | 3.2 | 0.00 | 0.00 | 0.00 | 92 | 1019.7 |
| 20260905205639 | 15 | 222 | 1.6 | 9.7 | 0.00 | 0.00 | 0.00 | 81 | 1019.9 |
| 20260905205634 | 14 | 211 | 3.2 | 6.4 | 0.00 | 0.00 | 0.00 | 87 | 1019.9 |
| 20260905205626 | 13 | 187 | 0.0 | 4.8 | 0.00 | 0.00 | 0.00 | 91 | 1019.9 |
| 20260905205610 | 13 | 211 | 1.6 | 4.8 | 0.00 | 0.00 | 0.00 | 91 | 1019.7 |
| 20260905205554 | 13 | 172 | 0.0 | 4.8 | 0.00 | 0.00 | 0.00 | 90 | 1019.9 |
| 20260905205329 | 13 | 194 | 1.6 | 4.8 | 0.00 | 0.00 | 0.00 | 90 | 1019.9 |
| 20260905205313 | 13 | 200 | 0.0 | 4.8 | 0.00 | 0.00 | 0.00 | 90 | 1019.9 |
| 20260905205306 | 13 | 211 | 1.6 | 4.8 | 0.00 | 0.00 | 0.00 | 90 | 1020.1 |
| 20260905205250 | 14 | 192 | 0.0 | 4.8 | 0.00 | 0.00 | 0.00 | 89 | 1020.0 |
| 20260905205234 | 14 | 151 | 1.6 | 4.8 | 0.00 | 0.00 | 0.00 | 89 | 1019.7 |
| 20260905204959 | 14 | 191 | 0.0 | 4.8 | 0.00 | 0.00 | 0.00 | 87 | 1019.9 |
| 20260905204729 | 14 | 186 | 0.0 | 6.4 | 0.00 | 0.00 | 0.00 | 87 | 1020.0 |
| 20260905204713 | 14 | 186 | 1.6 | 9.7 | 0.00 | 0.00 | 0.00 | 86 | 1020.1 |
| 20260905204657 | 14 | 165 | 1.6 | 9.7 | 0.00 | 0.00 | 0.00 | 86 | 1019.7 |
| 20260905204641 | 15 | 217 | 1.6 | 9.7 | 0.00 | 0.00 | 0.00 | 85 | 1020.0 |
| 20260905204626 | 15 | 206 | 0.0 | 9.7 | 0.00 | 0.00 | 0.00 | 84 | 1019.6 |
| 20260905204609 | 15 | 207 | 0.0 | 9.7 | 0.00 | 0.00 | 0.00 | 84 | 1019.6 |
| 20260905204603 | 15 | 207 | 0.0 | 9.7 | 0.00 | 0.00 | 0.00 | 84 | 1019.7 |
| 20260905204328 | 15 | 226 | 1.6 | 9.7 | 0.00 | 0.00 | 0.00 | 82 | 1020.0 |
| 20260905204052 | 15 | 127 | 1.6 | 9.7 | 0.00 | 0.00 | 0.00 | 81 | 1019.9 |
| 20260905203824 | 15 | 186 | 1.6 | 9.7 | 0.00 | 0.00 | 0.00 | 81 | 1019.8 |
| 20260905203502 | 15 | 159 | 1.6 | 6.4 | 0.00 | 0.00 | 0.00 | 80 | 1019.8 |
| 20260905203403 | 15 | 202 | 0.0 | 6.4 | 0.00 | 0.00 | 0.00 | 79 | 1019.7 |
| 20260905203302 | 15 | 174 | 1.6 | 6.4 | 0.00 | 0.00 | 0.00 | 79 | 1019.7 |
| 20260905203244 | 15 | 75 | 3.2 | 6.4 | 0.00 | 0.00 | 0.00 | 78 | 1019.7 |
| 20260905203237 | 15 | 75 | 3.2 | 6.4 | 0.00 | 0.00 | 0.00 | 78 | 1019.6 |
| 20260905203222 | 15 | 78 | 3.2 | 11.3 | 0.00 | 0.00 | 0.00 | 78 | 1019.7 |
| 20260905202902 | 15 | 85 | 1.6 | 11.3 | 0.00 | 0.00 | 0.00 | 77 | 1019.5 |
| 20260905202850 | 16 | 66 | 6.4 | 11.3 | 0.00 | 0.00 | 0.00 | 74 | 1019.5 |
| 20260905202840 | 16 | 67 | 3.2 | 11.3 | 0.00 | 0.00 | 0.00 | 77 | 1019.5 |
| 20260905202821 | 16 | 253 | 1.6 | 11.3 | 0.00 | 0.00 | 0.00 | 76 | 1019.5 |
| 20260905202814 | 16 | 116 | 1.6 | 11.3 | 0.00 | 0.00 | 0.00 | 76 | 1019.6 |
| 20260905202758 | 16 | 24 | 3.2 | 11.3 | 0.00 | 0.00 | 0.00 | 76 | 1019.8 |
| 20260905202741 | 16 | 203 | 0.0 | 11.3 | 0.00 | 0.00 | 0.00 | 76 | 1019.7 |
| 20260905202726 | 16 | 143 | 1.6 | 11.3 | 0.00 | 0.00 | 0.00 | 75 | 1019.4 |
| 20260905202709 | 16 | 113 | 3.2 | 11.3 | 0.00 | 0.00 | 0.00 | 75 | 1019.5 |
| 20260905202223 | 16 | 219 | 4.8 | 6.4 | 0.00 | 0.00 | 0.00 | 74 | 1019.5 |
| 20260905201902 | 16 | 57 | 1.6 | 3.2 | 0.00 | 0.00 | 0.00 | 74 | 1019.0 |
| 20260905201846 | 16 | 138 | 1.6 | 3.2 | 0.00 | 0.00 | 0.00 | 73 | 1019.0 |
| 20260905201828 | 16 | 178 | 0.0 | 1.6 | 0.00 | 0.00 | 0.00 | 73 | 1019.0 |
| 20260905201822 | 16 | 194 | 0.0 | 1.6 | 0.00 | 0.00 | 0.00 | 73 | 1018.8 |
| 20260905201539 | 16 | 174 | 1.6 | 1.6 | 0.00 | 0.00 | 0.00 | 73 | 1018.4 |
| 20260905201522 | 16 | 196 | 0.0 | 1.6 | 0.00 | 0.00 | 0.00 | 73 | 1018.5 |
| 20260905201210 | 16 | 200 | 0.0 | 1.6 | 0.00 | 0.00 | 0.00 | 73 | 1018.7 |
| 20260905201202 | 16 | 200 | 0.0 | 1.6 | 0.00 | 0.00 | 0.00 | 73 | 1018.3 |
| 20260905201102 | 16 | 200 | 0.0 | 1.6 | 0.00 | 0.00 | 0.00 | 73 | 1018.2 |
| 20260905201002 | 16 | 200 | 0.0 | 1.6 | 0.00 | 0.00 | 0.00 | 73 | 1018.3 |
| 20260905200902 | 16 | 203 | 0.0 | 1.6 | 0.00 | 0.00 | 0.00 | 72 | 1018.4 |
| 20260905200802 | 16 | 204 | 0.0 | 1.6 | 0.00 | 0.00 | 0.00 | 72 | 1018.5 |
| 20260905200710 | 16 | 203 | 0.0 | 1.6 | 0.00 | 0.00 | 0.00 | 72 | 1018.5 |
| 20260905200703 | 16 | 203 | 0.0 | 1.6 | 0.00 | 0.00 | 0.00 | 72 | 1018.2 |
| 20260905200601 | 16 | 199 | 0.0 | 1.6 | 0.00 | 0.00 | 0.00 | 73 | 1018.1 |
| 20260905200402 | 16 | 200 | 0.0 | 0.0 | 0.00 | 0.00 | 0.00 | 73 | 1018.1 |
| 20260905200302 | 16 | 199 | 0.0 | 0.0 | 0.00 | 0.00 | 0.00 | 73 | 1018.1 |
| 20260905200210 | 16 | 199 | 0.0 | 0.0 | 0.00 | 0.00 | 0.00 | 73 | 1018.1 |
| 20260905200201 | 16 | 199 | 0.0 | 0.0 | 0.00 | 0.00 | 0.00 | 73 | 1018.1 |
| 20260905200004 | 16 | 199 | 0.0 | 0.0 | 0.00 | 0.00 | 0.00 | 73 | 1018.1 |
| 20260905195902 | 16 | 199 | 0.0 | 0.0 | 0.00 | 0.00 | 0.00 | 72 | 1018.1 |
| 20260905195802 | 16 | 199 | 0.0 | 0.0 | 0.00 | 0.00 | 0.00 | 72 | 1018.1 |
| 20260905195710 | 16 | 199 | 0.0 | 0.0 | 0.00 | 0.00 | 0.00 | 72 | 1018.1 |
| 20260905195703 | 16 | 199 | 0.0 | 0.0 | 0.00 | 0.00 | 0.00 | 72 | 1018.2 |
| 20260905195603 | 16 | 199 | 0.0 | 0.0 | 0.00 | 0.00 | 0.00 | 72 | 1018.0 |
| 20260905195501 | 16 | 199 | 0.0 | 0.0 | 0.00 | 0.00 | 0.00 | 72 | 1018.2 |
| 20260905195402 | 16 | 199 | 0.0 | 0.0 | 0.00 | 0.00 | 0.00 | 72 | 1018.2 |
| 20260905195338 | 16 | 199 | 0.0 | 0.0 | 0.00 | 0.00 | 0.00 | 72 | 1018.1 |
| 20260905195322 | 16 | 200 | 0.0 | 0.0 | 0.00 | 0.00 | 0.00 | 73 | 1018.1 |
| 20260905195315 | 16 | 199 | 0.0 | 0.0 | 0.00 | 0.00 | 0.00 | 73 | 1018.2 |
| 20260905195300 | 16 | 200 | 0.0 | 0.0 | 0.00 | 0.00 | 0.00 | 72 | 1018.2 |
| 20260905195243 | 16 | 200 | 0.0 | 0.0 | 0.00 | 0.00 | 0.00 | 72 | 1018.2 |
| 20260905194710 | 17 | 200 | 0.0 | 0.0 | 0.00 | 0.00 | 0.00 | 72 | 1018.0 |
| 20260905194702 | 17 | 200 | 0.0 | 0.0 | 0.00 | 0.00 | 0.00 | 72 | 1018.5 |
| 20260905194603 | 17 | 200 | 0.0 | 0.0 | 0.00 | 0.00 | 0.00 | 72 | 1018.3 |
| 20260905194503 | 17 | 200 | 0.0 | 0.0 | 0.00 | 0.00 | 0.00 | 72 | 1018.1 |
| 20260905194445 | 17 | 200 | 0.0 | 0.0 | 0.00 | 0.00 | 0.00 | 72 | 1018.3 |
| 20260905194413 | 17 | 200 | 0.0 | 0.0 | 0.00 | 0.00 | 0.00 | 72 | 1017.9 |
| 20260905194102 | 17 | 200 | 0.0 | 0.0 | 0.00 | 0.00 | 0.00 | 72 | 1018.2 |
| 20260905194002 | 17 | 200 | 0.0 | 0.0 | 0.00 | 0.00 | 0.00 | 72 | 1018.0 |
| 20260905193903 | 17 | 200 | 0.0 | 1.6 | 0.00 | 0.00 | 0.00 | 72 | 1018.0 |
| 20260905193821 | 17 | 200 | 0.0 | 1.6 | 0.00 | 0.00 | 0.00 | 72 | 1018.3 |
| 20260905193814 | 17 | 200 | 0.0 | 1.6 | 0.00 | 0.00 | 0.00 | 72 | 1018.0 |
| 20260905193759 | 17 | 201 | 0.0 | 1.6 | 0.00 | 0.00 | 0.00 | 73 | 1017.9 |
| 20260905193743 | 17 | 201 | 0.0 | 1.6 | 0.00 | 0.00 | 0.00 | 73 | 1017.9 |
| 20260905193728 | 17 | 201 | 0.0 | 1.6 | 0.00 | 0.00 | 0.00 | 73 | 1017.9 |
| 20260905193710 | 17 | 202 | 0.0 | 1.6 | 0.00 | 0.00 | 0.00 | 73 | 1018.1 |
| 20260905193654 | 17 | 202 | 0.0 | 1.6 | 0.00 | 0.00 | 0.00 | 72 | 1018.1 |
| 20260905192926 | 17 | 199 | 0.0 | 1.6 | 0.00 | 0.00 | 0.00 | 71 | 1018.0 |
| 20260905192920 | 17 | 200 | 0.0 | 0.0 | 0.00 | 0.00 | 0.00 | 71 | 1018.1 |
| 20260905192904 | 17 | 200 | 0.0 | 0.0 | 0.00 | 0.00 | 0.00 | 72 | 1018.1 |
| 20260905192847 | 17 | 200 | 0.0 | 1.6 | 0.00 | 0.00 | 0.00 | 72 | 1018.1 |
| 20260905192840 | 17 | 200 | 0.0 | 1.6 | 0.00 | 0.00 | 0.00 | 72 | 1018.0 |
| 20260905192826 | 17 | 200 | 0.0 | 1.6 | 0.00 | 0.00 | 0.00 | 71 | 1018.0 |
| 20260905192811 | 17 | 201 | 0.0 | 1.6 | 0.00 | 0.00 | 0.00 | 72 | 1018.0 |
| 20260905192534 | 17 | 199 | 0.0 | 1.6 | 0.00 | 0.00 | 0.00 | 72 | 1018.0 |
| 20260905192518 | 17 | 199 | 0.0 | 1.6 | 0.00 | 0.00 | 0.00 | 71 | 1018.0 |
| 20260905192511 | 17 | 199 | 0.0 | 1.6 | 0.00 | 0.00 | 0.00 | 71 | 1018.0 |
| 20260905192456 | 17 | 199 | 0.0 | 1.6 | 0.00 | 0.00 | 0.00 | 72 | 1017.9 |
| 20260905192440 | 17 | 199 | 0.0 | 1.6 | 0.00 | 0.00 | 0.00 | 71 | 1017.9 |
| 20260905192424 | 17 | 199 | 0.0 | 1.6 | 0.00 | 0.00 | 0.00 | 71 | 1018.2 |
| 20260905192408 | 17 | 199 | 0.0 | 1.6 | 0.00 | 0.00 | 0.00 | 71 | 1018.2 |
| 20260905192139 | 17 | 199 | 0.0 | 1.6 | 0.00 | 0.00 | 0.00 | 71 | 1018.0 |
| 20260905192123 | 17 | 190 | 0.0 | 1.6 | 0.00 | 0.00 | 0.00 | 71 | 1018.0 |
| 20260905192107 | 17 | 198 | 0.0 | 1.6 | 0.00 | 0.00 | 0.00 | 71 | 1018.0 |
| 20260905191611 | 17 | 197 | 0.0 | 1.6 | 0.00 | 0.00 | 0.00 | 70 | 1018.1 |
| 20260905191604 | 17 | 197 | 0.0 | 1.6 | 0.00 | 0.00 | 0.00 | 69 | 1018.1 |
| 20260905190802 | 17 | 164 | 0.0 | 1.6 | 0.00 | 0.00 | 0.00 | 69 | 1018.1 |
| 20260905190710 | 17 | 198 | 0.0 | 1.6 | 0.00 | 0.00 | 0.00 | 69 | 1018.1 |
| 20260905190702 | 17 | 198 | 0.0 | 1.6 | 0.00 | 0.00 | 0.00 | 69 | 1018.1 |
| 20260905190602 | 17 | 199 | 0.0 | 1.6 | 0.00 | 0.00 | 0.00 | 69 | 1017.8 |
| 20260905190503 | 17 | 199 | 0.0 | 1.6 | 0.00 | 0.00 | 0.00 | 69 | 1017.8 |
| 20260905190404 | 17 | 196 | 0.0 | 1.6 | 0.00 | 0.00 | 0.00 | 69 | 1017.8 |
| 20260905190302 | 17 | 196 | 0.0 | 1.6 | 0.00 | 0.00 | 0.00 | 69 | 1017.8 |
| 20260905190210 | 17 | 196 | 0.0 | 1.6 | 0.00 | 0.00 | 0.00 | 69 | 1017.8 |
| 20260905190202 | 17 | 196 | 0.0 | 1.6 | 0.00 | 0.00 | 0.00 | 69 | 1017.8 |
| 20260905190003 | 17 | 194 | 0.0 | 1.6 | 0.00 | 0.00 | 0.00 | 69 | 1018.0 |
| 20260905185903 | 17 | 190 | 0.0 | 1.6 | 0.00 | 0.00 | 0.00 | 69 | 1017.9 |
| 20260905185802 | 17 | 188 | 0.0 | 1.6 | 0.00 | 0.00 | 0.00 | 69 | 1017.9 |
| 20260905185710 | 17 | 198 | 0.0 | 1.6 | 0.00 | 0.00 | 0.00 | 69 | 1018.0 |
| 20260905185704 | 17 | 198 | 0.0 | 1.6 | 0.00 | 0.00 | 0.00 | 69 | 1017.7 |
| 20260905185648 | 17 | 198 | 0.0 | 1.6 | 0.00 | 0.00 | 0.00 | 69 | 1017.7 |
| 20260905185504 | 17 | 198 | 0.0 | 1.6 | 0.00 | 0.00 | 0.00 | 69 | 1018.1 |
| 20260905185446 | 17 | 196 | 0.0 | 1.6 | 0.00 | 0.00 | 0.00 | 70 | 1017.9 |
| 20260905185429 | 17 | 198 | 0.0 | 1.6 | 0.00 | 0.00 | 0.00 | 70 | 1017.8 |
| 20260905185413 | 17 | 198 | 0.0 | 1.6 | 0.00 | 0.00 | 0.00 | 69 | 1017.8 |
| 20260905185138 | 17 | 196 | 0.0 | 1.6 | 0.00 | 0.00 | 0.00 | 70 | 1017.8 |
| 20260905185123 | 17 | 214 | 0.0 | 1.6 | 0.00 | 0.00 | 0.00 | 71 | 1017.7 |
| 20260905184804 | 17 | 201 | 0.0 | 1.6 | 0.00 | 0.00 | 0.00 | 71 | 1017.7 |
| 20260905184710 | 17 | 199 | 0.0 | 1.6 | 0.00 | 0.00 | 0.00 | 71 | 1017.8 |
| 20260905184702 | 17 | 199 | 0.0 | 1.6 | 0.00 | 0.00 | 0.00 | 71 | 1017.8 |
| 20260905184637 | 17 | 197 | 0.0 | 0.0 | 0.00 | 0.00 | 0.00 | 72 | 1017.7 |
| 20260905184629 | 17 | 196 | 0.0 | 0.0 | 0.00 | 0.00 | 0.00 | 72 | 1017.6 |
| 20260905184613 | 17 | 196 | 0.0 | 0.0 | 0.00 | 0.00 | 0.00 | 72 | 1017.6 |
| 20260905184558 | 17 | 197 | 0.0 | 0.0 | 0.00 | 0.00 | 0.00 | 72 | 1017.8 |
| 20260905184542 | 17 | 197 | 0.0 | 0.0 | 0.00 | 0.00 | 0.00 | 72 | 1017.7 |
| 20260905184315 | 17 | 197 | 0.0 | 0.0 | 0.00 | 0.00 | 0.00 | 72 | 1017.8 |
| 20260905184300 | 17 | 198 | 0.0 | 0.0 | 0.00 | 0.00 | 0.00 | 71 | 1017.5 |
| 20260905184244 | 17 | 198 | 0.0 | 0.0 | 0.00 | 0.00 | 0.00 | 72 | 1017.5 |
| 20260905184008 | 17 | 197 | 0.0 | 0.0 | 0.00 | 0.00 | 0.00 | 72 | 1017.6 |
| 20260905183949 | 17 | 197 | 0.0 | 0.0 | 0.00 | 0.00 | 0.00 | 72 | 1017.5 |
| 20260905183943 | 17 | 197 | 0.0 | 0.0 | 0.00 | 0.00 | 0.00 | 72 | 1017.5 |
| 20260905183403 | 17 | 196 | 0.0 | 0.0 | 0.00 | 0.00 | 0.00 | 72 | 1017.5 |
| 20260905183303 | 17 | 196 | 0.0 | 0.0 | 0.00 | 0.00 | 0.00 | 72 | 1017.5 |
| 20260905183210 | 17 | 196 | 0.0 | 0.0 | 0.00 | 0.00 | 0.00 | 72 | 1017.4 |
| 20260905183203 | 17 | 196 | 0.0 | 0.0 | 0.00 | 0.00 | 0.00 | 72 | 1017.4 |
| 20260905183101 | 17 | 196 | 0.0 | 0.0 | 0.00 | 0.00 | 0.00 | 72 | 1017.4 |
| 20260905183003 | 17 | 196 | 0.0 | 1.6 | 0.00 | 0.00 | 0.00 | 72 | 1017.5 |
| 20260905182903 | 17 | 196 | 0.0 | 1.6 | 0.00 | 0.00 | 0.00 | 72 | 1017.6 |
| 20260905182846 | 17 | 196 | 0.0 | 1.6 | 0.00 | 0.00 | 0.00 | 72 | 1017.6 |
| 20260905182828 | 17 | 196 | 0.0 | 1.6 | 0.00 | 0.00 | 0.00 | 71 | 1017.4 |
| 20260905182821 | 17 | 197 | 0.0 | 1.6 | 0.00 | 0.00 | 0.00 | 71 | 1017.4 |
| 20260905182502 | 17 | 200 | 0.0 | 1.6 | 0.00 | 0.00 | 0.00 | 70 | 1017.5 |
| 20260905182402 | 17 | 196 | 0.0 | 1.6 | 0.00 | 0.00 | 0.00 | 70 | 1017.5 |
| 20260905182317 | 17 | 196 | 0.0 | 1.6 | 0.00 | 0.00 | 0.00 | 69 | 1017.5 |
| 20260905182311 | 17 | 194 | 0.0 | 1.6 | 0.00 | 0.00 | 0.00 | 71 | 1017.6 |
| 20260905182256 | 17 | 196 | 0.0 | 1.6 | 0.00 | 0.00 | 0.00 | 71 | 1017.4 |
| 20260905182236 | 17 | 196 | 0.0 | 1.6 | 0.00 | 0.00 | 0.00 | 70 | 1017.4 |
| 20260905182220 | 17 | 194 | 0.0 | 1.6 | 0.00 | 0.00 | 0.00 | 70 | 1017.5 |
| 20260905182204 | 17 | 192 | 0.0 | 1.6 | 0.00 | 0.00 | 0.00 | 70 | 1017.5 |
| 20260905181928 | 17 | 195 | 0.0 | 1.6 | 0.00 | 0.00 | 0.00 | 70 | 1017.5 |
| 20260905181658 | 17 | 196 | 0.0 | 1.6 | 0.00 | 0.00 | 0.00 | 69 | 1017.2 |
| 20260905181558 | 17 | 195 | 0.0 | 1.6 | 0.00 | 0.00 | 0.00 | 70 | 1017.3 |
| 20260905181458 | 17 | 195 | 0.0 | 1.6 | 0.00 | 0.00 | 0.00 | 70 | 1017.2 |
| 20260905181359 | 17 | 196 | 0.0 | 1.6 | 0.00 | 0.00 | 0.00 | 70 | 1017.3 |
| 20260905181258 | 17 | 197 | 0.0 | 1.6 | 0.00 | 0.00 | 0.00 | 70 | 1017.4 |
| 20260905181206 | 17 | 199 | 0.0 | 1.6 | 0.00 | 0.00 | 0.00 | 70 | 1017.4 |
| 20260905181158 | 17 | 199 | 0.0 | 1.6 | 0.00 | 0.00 | 0.00 | 70 | 1017.4 |
| 20260905181058 | 17 | 186 | 0.0 | 1.6 | 0.00 | 0.00 | 0.00 | 70 | 1017.5 |
| 20260905181000 | 17 | 194 | 0.0 | 1.6 | 0.00 | 0.00 | 0.00 | 69 | 1017.2 |
| 20260905180907 | 17 | 192 | 0.0 | 1.6 | 0.00 | 0.00 | 0.00 | 70 | 1017.4 |
| 20260905180851 | 17 | 198 | 0.0 | 1.6 | 0.00 | 0.00 | 0.00 | 70 | 1017.2 |
| 20260905180833 | 17 | 198 | 0.0 | 1.6 | 0.00 | 0.00 | 0.00 | 69 | 1017.2 |
| 20260905180827 | 17 | 198 | 0.0 | 1.6 | 0.00 | 0.00 | 0.00 | 69 | 1017.3 |
| 20260905180551 | 18 | 188 | 0.0 | 1.6 | 0.00 | 0.00 | 0.00 | 70 | 1017.3 |
| 20260905180536 | 18 | 195 | 0.0 | 1.6 | 0.00 | 0.00 | 0.00 | 69 | 1017.4 |
| 20260905180304 | 18 | 196 | 0.0 | 1.6 | 0.00 | 0.00 | 0.00 | 69 | 1017.2 |
| 20260905180255 | 18 | 195 | 0.0 | 1.6 | 0.00 | 0.00 | 0.00 | 69 | 1017.4 |
| 20260905175934 | 18 | 203 | 0.0 | 1.6 | 0.00 | 0.00 | 0.00 | 68 | 1017.5 |
| 20260905175834 | 18 | 198 | 0.0 | 1.6 | 0.00 | 0.00 | 0.00 | 68 | 1017.4 |
| 20260905175706 | 18 | 199 | 0.0 | 1.6 | 0.00 | 0.00 | 0.00 | 68 | 1017.3 |
| 20260905175634 | 18 | 196 | 0.0 | 1.6 | 0.00 | 0.00 | 0.00 | 68 | 1017.1 |
| 20260905175534 | 18 | 197 | 0.0 | 1.6 | 0.00 | 0.00 | 0.00 | 67 | 1017.2 |
| 20260905175434 | 18 | 203 | 0.0 | 1.6 | 0.00 | 0.00 | 0.00 | 67 | 1017.2 |
| 20260905175334 | 18 | 196 | 0.0 | 1.6 | 0.00 | 0.00 | 0.00 | 66 | 1017.3 |
| 20260905175316 | 18 | 185 | 0.0 | 1.6 | 0.00 | 0.00 | 0.00 | 67 | 1017.1 |
| 20260905175306 | 18 | 191 | 0.0 | 1.6 | 0.00 | 0.00 | 0.00 | 67 | 1017.1 |
| 20260905175254 | 18 | 192 | 0.0 | 1.6 | 0.00 | 0.00 | 0.00 | 67 | 1017.2 |
| 20260905175011 | 18 | 193 | 0.0 | 1.6 | 0.00 | 0.00 | 0.00 | 67 | 1017.2 |
| 20260905174955 | 18 | 192 | 0.0 | 1.6 | 0.00 | 0.00 | 0.00 | 66 | 1017.2 |
| 20260905174940 | 18 | 194 | 0.0 | 1.6 | 0.00 | 0.00 | 0.00 | 66 | 1017.1 |
| 20260905174925 | 18 | 196 | 0.0 | 1.6 | 0.00 | 0.00 | 0.00 | 66 | 1017.1 |
| 20260905174654 | 18 | 191 | 0.0 | 0.0 | 0.00 | 0.00 | 0.00 | 66 | 1017.2 |
| 20260905174359 | 18 | 196 | 0.0 | 0.0 | 0.00 | 0.00 | 0.00 | 66 | 1017.3 |
| 20260905174343 | 18 | 268 | 0.0 | 0.0 | 0.00 | 0.00 | 0.00 | 67 | 1017.0 |
| 20260905174330 | 18 | 268 | 0.0 | 0.0 | 0.00 | 0.00 | 0.00 | 66 | 1017.0 |
| 20260905174321 | 18 | 268 | 0.0 | 1.6 | 0.00 | 0.00 | 0.00 | 66 | 1017.1 |
| 20260905174306 | 18 | 194 | 0.0 | 1.6 | 0.00 | 0.00 | 0.00 | 67 | 1017.1 |
| 20260905174029 | 18 | 194 | 0.0 | 1.6 | 0.00 | 0.00 | 0.00 | 66 | 1017.0 |
| 20260905174013 | 18 | 191 | 0.0 | 1.6 | 0.00 | 0.00 | 0.00 | 66 | 1017.0 |
| 20260905173958 | 18 | 193 | 0.0 | 1.6 | 0.00 | 0.00 | 0.00 | 66 | 1017.0 |
| 20260905173729 | 18 | 198 | 0.0 | 1.6 | 0.00 | 0.00 | 0.00 | 66 | 1017.0 |
| 20260905173453 | 18 | 197 | 0.0 | 1.6 | 0.00 | 0.00 | 0.00 | 66 | 1017.1 |
| 20260905173206 | 18 | 202 | 0.0 | 1.6 | 0.00 | 0.00 | 0.00 | 65 | 1017.0 |
| 20260905173135 | 18 | 196 | 0.0 | 1.6 | 0.00 | 0.00 | 0.00 | 66 | 1017.1 |
| 20260905173044 | 18 | 197 | 0.0 | 1.6 | 0.00 | 0.00 | 0.00 | 66 | 1016.8 |
| 20260905173038 | 18 | 198 | 0.0 | 1.6 | 0.00 | 0.00 | 0.00 | 65 | 1017.0 |
| 20260905173023 | 18 | 198 | 0.0 | 1.6 | 0.00 | 0.00 | 0.00 | 66 | 1017.0 |
| 20260905173007 | 18 | 190 | 0.0 | 1.6 | 0.00 | 0.00 | 0.00 | 66 | 1017.0 |
| 20260905172953 | 18 | 198 | 0.0 | 1.6 | 0.00 | 0.00 | 0.00 | 66 | 1017.1 |
| 20260905172942 | 18 | 199 | 0.0 | 1.6 | 0.00 | 0.00 | 0.00 | 65 | 1017.1 |
| 20260905172931 | 18 | 196 | 0.0 | 1.6 | 0.00 | 0.00 | 0.00 | 66 | 1017.0 |
| 20260905172655 | 18 | 194 | 0.0 | 1.6 | 0.00 | 0.00 | 0.00 | 66 | 1017.1 |
| 20260905172421 | 18 | 197 | 0.0 | 1.6 | 0.00 | 0.00 | 0.00 | 66 | 1016.8 |
| 20260905172110 | 18 | 188 | 0.0 | 1.6 | 0.00 | 0.00 | 0.00 | 65 | 1016.9 |
| 20260905172010 | 18 | 134 | 0.0 | 1.6 | 0.00 | 0.00 | 0.00 | 66 | 1017.0 |
| 20260905171955 | 18 | 192 | 0.0 | 1.6 | 0.00 | 0.00 | 0.00 | 66 | 1017.1 |
| 20260905171939 | 18 | 192 | 0.0 | 1.6 | 0.00 | 0.00 | 0.00 | 67 | 1017.0 |
| 20260905171710 | 18 | 192 | 0.0 | 1.6 | 0.00 | 0.00 | 0.00 | 67 | 1017.0 |
| 20260905171610 | 18 | 190 | 0.0 | 1.6 | 0.00 | 0.00 | 0.00 | 67 | 1016.9 |
| 20260905171510 | 18 | 194 | 0.0 | 1.6 | 0.00 | 0.00 | 0.00 | 67 | 1016.9 |
| 20260905171410 | 18 | 195 | 0.0 | 1.6 | 0.00 | 0.00 | 0.00 | 68 | 1016.7 |
| 20260905171311 | 18 | 180 | 0.0 | 1.6 | 0.00 | 0.00 | 0.00 | 67 | 1016.9 |
| 20260905171210 | 18 | 187 | 0.0 | 1.6 | 0.00 | 0.00 | 0.00 | 67 | 1017.0 |
| 20260905171110 | 18 | 197 | 0.0 | 1.6 | 0.00 | 0.00 | 0.00 | 66 | 1016.9 |
| 20260905171046 | 18 | 191 | 0.0 | 1.6 | 0.00 | 0.00 | 0.00 | 66 | 1017.0 |
| 20260905171030 | 18 | 196 | 1.6 | 1.6 | 0.00 | 0.00 | 0.00 | 66 | 1017.1 |
| 20260905170711 | 18 | 193 | 0.0 | 1.6 | 0.00 | 0.00 | 0.00 | 66 | 1017.0 |
| 20260905170610 | 18 | 192 | 0.0 | 1.6 | 0.00 | 0.00 | 0.00 | 66 | 1016.8 |
| 20260905170554 | 18 | 197 | 0.0 | 1.6 | 0.00 | 0.00 | 0.00 | 66 | 1017.0 |
| 20260905170538 | 18 | 187 | 0.0 | 1.6 | 0.00 | 0.00 | 0.00 | 67 | 1016.9 |
| 20260905170314 | 18 | 189 | 0.0 | 1.6 | 0.00 | 0.00 | 0.00 | 67 | 1016.9 |
| 20260905170252 | 18 | 196 | 0.0 | 1.6 | 0.00 | 0.00 | 0.00 | 67 | 1016.8 |
| 20260905170236 | 18 | 186 | 0.0 | 1.6 | 0.00 | 0.00 | 0.00 | 67 | 1016.8 |
| 20260905170011 | 18 | 194 | 0.0 | 1.6 | 0.00 | 0.00 | 0.00 | 67 | 1016.7 |
| 20260905165955 | 18 | 194 | 0.0 | 1.6 | 0.00 | 0.00 | 0.00 | 66 | 1016.8 |
| 20260905165940 | 18 | 195 | 0.0 | 1.6 | 0.00 | 0.00 | 0.00 | 67 | 1016.9 |
| 20260905165919 | 18 | 193 | 0.0 | 1.6 | 0.00 | 0.00 | 0.00 | 67 | 1016.9 |
| 20260905165610 | 19 | 194 | 0.0 | 1.6 | 0.00 | 0.00 | 0.00 | 66 | 1016.7 |
| 20260905165511 | 19 | 188 | 0.0 | 1.6 | 0.00 | 0.00 | 0.00 | 66 | 1016.8 |
| 20260905165410 | 19 | 195 | 0.0 | 0.0 | 0.00 | 0.00 | 0.00 | 65 | 1016.9 |
| 20260905165311 | 19 | 197 | 0.0 | 0.0 | 0.00 | 0.00 | 0.00 | 65 | 1016.7 |
| 20260905165210 | 19 | 195 | 0.0 | 0.0 | 0.00 | 0.00 | 0.00 | 65 | 1016.7 |
| 20260905165110 | 19 | 203 | 0.0 | 0.0 | 0.00 | 0.00 | 0.00 | 65 | 1016.8 |
| 20260905165010 | 19 | 192 | 0.0 | 0.0 | 0.00 | 0.00 | 0.00 | 65 | 1016.8 |
| 20260905164914 | 19 | 122 | 0.0 | 0.0 | 0.00 | 0.00 | 0.00 | 66 | 1016.7 |
| 20260905164812 | 19 | 192 | 0.0 | 0.0 | 0.00 | 0.00 | 0.00 | 66 | 1016.7 |
| 20260905164709 | 19 | 194 | 0.0 | 0.0 | 0.00 | 0.00 | 0.00 | 65 | 1016.7 |
| 20260905164421 | 19 | 196 | 0.0 | 1.6 | 0.00 | 0.00 | 0.00 | 64 | 1016.8 |
| 20260905164405 | 19 | 195 | 0.0 | 1.6 | 0.00 | 0.00 | 0.00 | 64 | 1016.6 |
| 20260905164350 | 19 | 195 | 0.0 | 1.6 | 0.00 | 0.00 | 0.00 | 64 | 1016.6 |
| 20260905163853 | 19 | 193 | 0.0 | 1.6 | 0.00 | 0.00 | 0.00 | 65 | 1016.6 |
| 20260905163537 | 19 | 196 | 0.0 | 3.2 | 0.00 | 0.00 | 0.00 | 64 | 1016.8 |
| 20260905163438 | 19 | 198 | 0.0 | 3.2 | 0.00 | 0.00 | 0.00 | 64 | 1016.6 |
| 20260905163339 | 19 | 196 | 0.0 | 3.2 | 0.00 | 0.00 | 0.00 | 64 | 1016.8 |
| 20260905163321 | 19 | 207 | 0.0 | 3.2 | 0.00 | 0.00 | 0.00 | 64 | 1016.8 |
| 20260905163308 | 19 | 197 | 0.0 | 3.2 | 0.00 | 0.00 | 0.00 | 64 | 1016.8 |
| 20260905163259 | 19 | 191 | 0.0 | 3.2 | 0.00 | 0.00 | 0.00 | 64 | 1016.6 |
| 20260905162938 | 19 | 191 | 0.0 | 3.2 | 0.00 | 0.00 | 0.00 | 64 | 1016.9 |
| 20260905162905 | 20 | 195 | 0.0 | 3.2 | 0.00 | 0.00 | 0.00 | 63 | 1016.5 |
| 20260905162857 | 19 | 190 | 0.0 | 3.2 | 0.00 | 0.00 | 0.00 | 64 | 1016.6 |
| 20260905162840 | 19 | 192 | 0.0 | 3.2 | 0.00 | 0.00 | 0.00 | 64 | 1016.6 |
| 20260905162824 | 19 | 197 | 0.0 | 3.2 | 0.00 | 0.00 | 0.00 | 64 | 1016.6 |
| 20260905162815 | 19 | 182 | 0.0 | 3.2 | 0.00 | 0.00 | 0.00 | 64 | 1016.5 |
| 20260905162550 | 19 | 199 | 0.0 | 3.2 | 0.00 | 0.00 | 0.00 | 64 | 1016.3 |
| 20260905162535 | 19 | 123 | 0.0 | 3.2 | 0.00 | 0.00 | 0.00 | 64 | 1016.5 |
| 20260905162519 | 19 | 193 | 0.0 | 1.6 | 0.00 | 0.00 | 0.00 | 64 | 1016.5 |
| 20260905162503 | 19 | 194 | 0.0 | 3.2 | 0.00 | 0.00 | 0.00 | 64 | 1016.5 |
| 20260905162450 | 19 | 173 | 0.0 | 3.2 | 0.00 | 0.00 | 0.00 | 64 | 1016.5 |
| 20260905162441 | 19 | 194 | 0.0 | 3.2 | 0.00 | 0.00 | 0.00 | 64 | 1016.4 |
| 20260905162425 | 19 | 196 | 0.0 | 3.2 | 0.00 | 0.00 | 0.00 | 64 | 1016.6 |
| 20260905162149 | 20 | 196 | 0.0 | 3.2 | 0.00 | 0.00 | 0.00 | 63 | 1016.5 |
| 20260905161639 | 20 | 196 | 0.0 | 3.2 | 0.00 | 0.00 | 0.00 | 63 | 1016.3 |
| 20260905161538 | 20 | 196 | 0.0 | 3.2 | 0.00 | 0.00 | 0.00 | 63 | 1016.6 |
| 20260905161526 | 20 | 276 | 0.0 | 3.2 | 0.00 | 0.00 | 0.00 | 63 | 1016.2 |
| 20260905161517 | 20 | 194 | 0.0 | 3.2 | 0.00 | 0.00 | 0.00 | 63 | 1016.4 |
| 20260905161500 | 20 | 199 | 0.0 | 3.2 | 0.00 | 0.00 | 0.00 | 63 | 1016.5 |
| 20260905161443 | 20 | 158 | 0.0 | 1.6 | 0.00 | 0.00 | 0.00 | 63 | 1016.2 |
| 20260905161215 | 20 | 190 | 0.0 | 3.2 | 0.00 | 0.00 | 0.00 | 63 | 1016.3 |
| 20260905161200 | 20 | 190 | 0.0 | 3.2 | 0.00 | 0.00 | 0.00 | 63 | 1016.3 |
| 20260905160858 | 20 | 202 | 0.0 | 4.8 | 0.00 | 0.00 | 0.00 | 61 | 1016.1 |
| 20260905160851 | 20 | 194 | 0.0 | 3.2 | 0.00 | 0.00 | 0.00 | 63 | 1016.2 |
| 20260905160835 | 20 | 204 | 0.0 | 4.8 | 0.00 | 0.00 | 0.00 | 63 | 1016.3 |
| 20260905160820 | 20 | 192 | 0.0 | 4.8 | 0.00 | 0.00 | 0.00 | 63 | 1016.3 |
| 20260905160757 | 20 | 114 | 0.0 | 4.8 | 0.00 | 0.00 | 0.00 | 63 | 1016.3 |
| 20260905160740 | 20 | 201 | 0.0 | 4.8 | 0.00 | 0.00 | 0.00 | 62 | 1016.3 |
| 20260905160504 | 20 | 144 | 0.0 | 4.8 | 0.00 | 0.00 | 0.00 | 62 | 1016.3 |
| 20260905160240 | 20 | 190 | 0.0 | 4.8 | 0.00 | 0.00 | 0.00 | 62 | 1016.2 |
| 20260905160227 | 20 | 182 | 0.0 | 4.8 | 0.00 | 0.00 | 0.00 | 62 | 1016.2 |
| 20260905160218 | 20 | 167 | 0.0 | 4.8 | 0.00 | 0.00 | 0.00 | 62 | 1016.1 |
| 20260905160200 | 20 | 194 | 0.0 | 4.8 | 0.00 | 0.00 | 0.00 | 62 | 1016.4 |
| 20260905160145 | 20 | 194 | 0.0 | 4.8 | 0.00 | 0.00 | 0.00 | 62 | 1016.1 |
| 20260905160128 | 20 | 144 | 0.0 | 4.8 | 0.00 | 0.00 | 0.00 | 61 | 1016.2 |
| 20260905160112 | 20 | 199 | 0.0 | 4.8 | 0.00 | 0.00 | 0.00 | 61 | 1016.1 |
| 20260905155538 | 20 | 194 | 0.0 | 4.8 | 0.00 | 0.00 | 0.00 | 61 | 1016.1 |
| 20260905155514 | 20 | 170 | 0.0 | 4.8 | 0.00 | 0.00 | 0.00 | 61 | 1016.2 |
| 20260905155458 | 20 | 132 | 0.0 | 4.8 | 0.00 | 0.00 | 0.00 | 61 | 1016.2 |
| 20260905155210 | 20 | 159 | 0.0 | 4.8 | 0.00 | 0.00 | 0.00 | 60 | 1015.9 |
| 20260905155138 | 20 | 191 | 0.0 | 4.8 | 0.00 | 0.00 | 0.00 | 60 | 1016.1 |
| 20260905155038 | 20 | 58 | 1.6 | 4.8 | 0.00 | 0.00 | 0.00 | 60 | 1016.1 |
| 20260905154937 | 20 | 44 | 1.6 | 4.8 | 0.00 | 0.00 | 0.00 | 59 | 1016.1 |
| 20260905154839 | 20 | 168 | 0.0 | 4.8 | 0.00 | 0.00 | 0.00 | 60 | 1016.0 |
| 20260905154738 | 20 | 183 | 1.6 | 4.8 | 0.00 | 0.00 | 0.00 | 59 | 1016.1 |
| 20260905154712 | 20 | 159 | 3.2 | 4.8 | 0.00 | 0.00 | 0.00 | 59 | 1016.1 |
| 20260905154638 | 20 | 192 | 1.6 | 4.8 | 0.00 | 0.00 | 0.00 | 59 | 1016.0 |
| 20260905154538 | 20 | 190 | 0.0 | 4.8 | 0.00 | 0.00 | 0.00 | 59 | 1016.3 |
| 20260905154502 | 20 | 163 | 1.6 | 4.8 | 0.00 | 0.00 | 0.00 | 59 | 1016.2 |
| 20260905154446 | 20 | 209 | 1.6 | 4.8 | 0.00 | 0.00 | 0.00 | 59 | 1016.0 |
| 20260905154430 | 20 | 181 | 0.0 | 4.8 | 0.00 | 0.00 | 0.00 | 59 | 1015.7 |
| 20260905154416 | 20 | 183 | 0.0 | 4.8 | 0.00 | 0.00 | 0.00 | 59 | 1015.7 |
| 20260905154407 | 20 | 195 | 1.6 | 4.8 | 0.00 | 0.00 | 0.00 | 59 | 1016.1 |
| 20260905154351 | 20 | 194 | 0.0 | 4.8 | 0.00 | 0.00 | 0.00 | 58 | 1016.3 |
| 20260905154335 | 20 | 102 | 1.6 | 11.3 | 0.00 | 0.00 | 0.00 | 59 | 1016.3 |
| 20260905154100 | 20 | 199 | 0.0 | 11.3 | 0.00 | 0.00 | 0.00 | 59 | 1016.1 |
| 20260905154045 | 20 | 192 | 1.6 | 11.3 | 0.00 | 0.00 | 0.00 | 59 | 1016.1 |
| 20260905154036 | 20 | 187 | 1.6 | 11.3 | 0.00 | 0.00 | 0.00 | 58 | 1016.2 |
| 20260905153540 | 20 | 114 | 1.6 | 11.3 | 0.00 | 0.00 | 0.00 | 58 | 1016.0 |
| 20260905153307 | 21 | 72 | 0.0 | 11.3 | 0.00 | 0.00 | 0.00 | 58 | 1015.9 |
| 20260905153258 | 21 | 186 | 0.0 | 11.3 | 0.00 | 0.00 | 0.00 | 58 | 1016.1 |
| 20260905152938 | 21 | 158 | 1.6 | 4.8 | 0.00 | 0.00 | 0.00 | 58 | 1016.0 |
| 20260905152839 | 21 | 222 | 1.6 | 4.8 | 0.00 | 0.00 | 0.00 | 58 | 1015.9 |
| 20260905152739 | 21 | 183 | 1.6 | 4.8 | 0.00 | 0.00 | 0.00 | 57 | 1016.0 |
| 20260905152710 | 21 | 144 | 1.6 | 4.8 | 0.00 | 0.00 | 0.00 | 57 | 1016.0 |
| 20260905152639 | 21 | 195 | 0.0 | 4.8 | 0.00 | 0.00 | 0.00 | 58 | 1015.9 |
| 20260905152537 | 21 | 197 | 1.6 | 4.8 | 0.00 | 0.00 | 0.00 | 58 | 1016.2 |
| 20260905152439 | 21 | 66 | 1.6 | 4.8 | 0.00 | 0.00 | 0.00 | 58 | 1015.9 |
| 20260905152338 | 21 | 191 | 0.0 | 4.8 | 0.00 | 0.00 | 0.00 | 57 | 1015.8 |
| 20260905152238 | 21 | 204 | 0.0 | 4.8 | 0.00 | 0.00 | 0.00 | 57 | 1016.0 |
| 20260905152222 | 21 | 173 | 0.0 | 4.8 | 0.00 | 0.00 | 0.00 | 57 | 1016.0 |
| 20260905152212 | 21 | 199 | 3.2 | 4.8 | 0.00 | 0.00 | 0.00 | 57 | 1015.8 |
| 20260905152158 | 21 | 301 | 1.6 | 4.8 | 0.00 | 0.00 | 0.00 | 57 | 1016.0 |
| 20260905151915 | 21 | 125 | 1.6 | 12.9 | 0.00 | 0.00 | 0.00 | 57 | 1016.0 |
| 20260905151900 | 21 | 105 | 1.6 | 12.9 | 0.00 | 0.00 | 0.00 | 57 | 1015.8 |
| 20260905151843 | 21 | 203 | 0.0 | 12.9 | 0.00 | 0.00 | 0.00 | 57 | 1015.8 |
| 20260905151834 | 21 | 171 | 0.0 | 12.9 | 0.00 | 0.00 | 0.00 | 57 | 1016.0 |
| 20260905151817 | 21 | 189 | 0.0 | 12.9 | 0.00 | 0.00 | 0.00 | 57 | 1015.7 |
| 20260905151238 | 21 | 66 | 1.6 | 12.9 | 0.00 | 0.00 | 0.00 | 56 | 1015.9 |
| 20260905151212 | 21 | 88 | 3.2 | 12.9 | 0.00 | 0.00 | 0.00 | 57 | 1015.9 |
| 20260905151139 | 21 | 109 | 1.6 | 12.9 | 0.00 | 0.00 | 0.00 | 57 | 1016.0 |
| 20260905151108 | 21 | 67 | 1.6 | 12.9 | 0.00 | 0.00 | 0.00 | 57 | 1015.8 |
| 20260905151051 | 21 | 90 | 3.2 | 12.9 | 0.00 | 0.00 | 0.00 | 56 | 1016.0 |
| 20260905151036 | 21 | 186 | 1.6 | 4.8 | 0.00 | 0.00 | 0.00 | 56 | 1015.7 |
| 20260905151020 | 21 | 69 | 1.6 | 4.8 | 0.00 | 0.00 | 0.00 | 56 | 1015.8 |
| 20260905151005 | 21 | 147 | 3.2 | 4.8 | 0.00 | 0.00 | 0.00 | 56 | 1015.8 |
| 20260905150956 | 21 | 179 | 0.0 | 4.8 | 0.00 | 0.00 | 0.00 | 56 | 1015.9 |
| 20260905150459 | 21 | 133 | 3.2 | 4.8 | 0.00 | 0.00 | 0.00 | 56 | 1015.9 |
| 20260905150210 | 21 | 189 | 1.6 | 4.8 | 0.00 | 0.00 | 0.00 | 56 | 1015.8 |
| 20260905150139 | 21 | 181 | 3.2 | 4.8 | 0.00 | 0.00 | 0.00 | 57 | 1015.9 |
| 20260905150039 | 21 | 206 | 0.0 | 4.8 | 0.00 | 0.00 | 0.00 | 57 | 1015.9 |
| 20260905145940 | 21 | 191 | 0.0 | 4.8 | 0.00 | 0.00 | 0.00 | 57 | 1015.8 |
| 20260905145924 | 21 | 194 | 3.2 | 4.8 | 0.00 | 0.00 | 0.00 | 57 | 1015.7 |
| 20260905145909 | 21 | 200 | 0.0 | 4.8 | 0.00 | 0.00 | 0.00 | 57 | 1015.6 |
| 20260905145853 | 21 | 205 | 0.0 | 4.8 | 0.00 | 0.00 | 0.00 | 57 | 1015.6 |
| 20260905145527 | 21 | 196 | 0.0 | 4.8 | 0.00 | 0.00 | 0.00 | 58 | 1016.0 |
| 20260905145431 | 21 | 163 | 0.0 | 4.8 | 0.00 | 0.00 | 0.00 | 57 | 1016.0 |
| 20260905145404 | 21 | 98 | 1.6 | 4.8 | 0.00 | 0.00 | 0.00 | 56 | 1015.6 |
| 20260905145347 | 21 | 22 | 1.6 | 4.8 | 0.00 | 0.00 | 0.00 | 57 | 1015.8 |
| 20260905145335 | 21 | 152 | 1.6 | 4.8 | 0.00 | 0.00 | 0.00 | 57 | 1015.8 |
| 20260905145325 | 21 | 207 | 1.6 | 4.8 | 0.00 | 0.00 | 0.00 | 58 | 1015.8 |
| 20260905145048 | 21 | 270 | 3.2 | 4.8 | 0.00 | 0.00 | 0.00 | 59 | 1015.8 |
| 20260905144727 | 21 | 102 | 0.0 | 4.8 | 0.00 | 0.00 | 0.00 | 59 | 1015.6 |
| 20260905144711 | 21 | 190 | 0.0 | 4.8 | 0.00 | 0.00 | 0.00 | 59 | 1015.6 |
| 20260905144654 | 21 | 129 | 0.0 | 4.8 | 0.00 | 0.00 | 0.00 | 59 | 1015.7 |
| 20260905144638 | 21 | 163 | 1.6 | 4.8 | 0.00 | 0.00 | 0.00 | 58 | 1015.8 |
| 20260905144621 | 21 | 190 | 0.0 | 4.8 | 0.00 | 0.00 | 0.00 | 59 | 1015.7 |
| 20260905144606 | 21 | 152 | 1.6 | 4.8 | 0.00 | 0.00 | 0.00 | 59 | 1015.8 |
| 20260905144334 | 21 | 213 | 1.6 | 4.8 | 0.00 | 0.00 | 0.00 | 59 | 1015.9 |
| 20260905144324 | 21 | 183 | 0.0 | 4.8 | 0.00 | 0.00 | 0.00 | 59 | 1015.8 |
| 20260905144047 | 21 | 58 | 1.6 | 4.8 | 0.00 | 0.00 | 0.00 | 59 | 1015.8 |
| 20260905143712 | 21 | 182 | 0.0 | 4.8 | 0.00 | 0.00 | 0.00 | 59 | 1015.8 |
| 20260905143702 | 21 | 142 | 0.0 | 4.8 | 0.00 | 0.00 | 0.00 | 59 | 1015.8 |
| 20260905143646 | 21 | 155 | 0.0 | 3.2 | 0.00 | 0.00 | 0.00 | 59 | 1015.8 |
| 20260905143327 | 21 | 189 | 0.0 | 3.2 | 0.00 | 0.00 | 0.00 | 60 | 1015.5 |
| 20260905143209 | 21 | 171 | 0.0 | 3.2 | 0.00 | 0.00 | 0.00 | 61 | 1015.6 |
| 20260905143126 | 21 | 200 | 1.6 | 3.2 | 0.00 | 0.00 | 0.00 | 60 | 1015.6 |
| 20260905143026 | 21 | 192 | 0.0 | 3.2 | 0.00 | 0.00 | 0.00 | 61 | 1015.6 |
| 20260905142926 | 21 | 196 | 0.0 | 4.8 | 0.00 | 0.00 | 0.00 | 61 | 1015.6 |
| 20260905142826 | 20 | 207 | 1.6 | 4.8 | 0.00 | 0.00 | 0.00 | 60 | 1015.6 |
| 20260905142728 | 20 | 190 | 0.0 | 4.8 | 0.00 | 0.00 | 0.00 | 61 | 1015.9 |
| 20260905142712 | 20 | 245 | 0.0 | 4.8 | 0.00 | 0.00 | 0.00 | 61 | 1015.9 |
| 20260905142704 | 20 | 192 | 0.0 | 4.8 | 0.00 | 0.00 | 0.00 | 63 | 1016.0 |
| 20260905142700 | 21 | 134 | 1.6 | 4.8 | 0.00 | 0.00 | 0.00 | 62 | 1015.6 |
| 20260905142652 | 20 | 50 | 1.6 | 4.8 | 0.00 | 0.00 | 0.00 | 62 | 1015.7 |
| 20260905142637 | 20 | 164 | 1.6 | 4.8 | 0.00 | 0.00 | 0.00 | 62 | 1015.8 |
| 20260905142621 | 20 | 179 | 0.0 | 4.8 | 0.00 | 0.00 | 0.00 | 62 | 1015.7 |
| 20260905142605 | 20 | 195 | 0.0 | 4.8 | 0.00 | 0.00 | 0.00 | 63 | 1015.9 |
| 20260905142547 | 20 | 192 | 0.0 | 4.8 | 0.00 | 0.00 | 0.00 | 63 | 1016.0 |
| 20260905142101 | 20 | 187 | 0.0 | 4.8 | 0.00 | 0.00 | 0.00 | 62 | 1015.8 |
| 20260905142045 | 20 | 189 | 0.0 | 4.8 | 0.00 | 0.00 | 0.00 | 62 | 1015.6 |
| 20260905142030 | 21 | 195 | 0.0 | 4.8 | 0.00 | 0.00 | 0.00 | 62 | 1015.8 |
| 20260905141801 | 21 | 220 | 0.0 | 4.8 | 0.00 | 0.00 | 0.00 | 61 | 1015.8 |
| 20260905141746 | 21 | 196 | 0.0 | 4.8 | 0.00 | 0.00 | 0.00 | 62 | 1015.7 |
| 20260905141729 | 21 | 144 | 0.0 | 4.8 | 0.00 | 0.00 | 0.00 | 61 | 1015.7 |
| 20260905141714 | 21 | 166 | 1.6 | 4.8 | 0.00 | 0.00 | 0.00 | 61 | 1015.8 |
| 20260905141436 | 21 | 134 | 1.6 | 4.8 | 0.00 | 0.00 | 0.00 | 62 | 1015.6 |
| 20260905141114 | 21 | 200 | 3.2 | 4.8 | 0.00 | 0.00 | 0.00 | 61 | 1015.8 |
| 20260905141014 | 21 | 196 | 0.0 | 4.8 | 0.00 | 0.00 | 0.00 | 61 | 1015.7 |
| 20260905140915 | 21 | 197 | 0.0 | 4.8 | 0.00 | 0.00 | 0.00 | 60 | 1015.8 |
| 20260905140858 | 21 | 108 | 0.0 | 4.8 | 0.00 | 0.00 | 0.00 | 60 | 1015.8 |
| 20260905140833 | 21 | 187 | 0.0 | 4.8 | 0.00 | 0.00 | 0.00 | 61 | 1015.7 |
| 20260905140550 | 21 | 146 | 0.0 | 4.8 | 0.00 | 0.00 | 0.00 | 60 | 1015.9 |
| 20260905140534 | 21 | 191 | 0.0 | 4.8 | 0.00 | 0.00 | 0.00 | 61 | 1015.7 |
| 20260905140214 | 21 | 193 | 0.0 | 4.8 | 0.00 | 0.00 | 0.00 | 61 | 1015.6 |
| 20260905140115 | 21 | 176 | 0.0 | 4.8 | 0.00 | 0.00 | 0.00 | 61 | 1015.7 |
| 20260905140015 | 21 | 202 | 0.0 | 3.2 | 0.00 | 0.00 | 0.00 | 61 | 1016.1 |
| 20260905135959 | 21 | 204 | 1.6 | 3.2 | 0.00 | 0.00 | 0.00 | 61 | 1015.8 |
| 20260905135943 | 21 | 202 | 0.0 | 3.2 | 0.00 | 0.00 | 0.00 | 61 | 1015.8 |
| 20260905135714 | 21 | 273 | 1.6 | 3.2 | 0.00 | 0.00 | 0.00 | 61 | 1015.5 |
| 20260905135614 | 22 | 200 | 0.0 | 3.2 | 0.00 | 0.00 | 0.00 | 61 | 1015.6 |
| 20260905135514 | 22 | 199 | 0.0 | 3.2 | 0.00 | 0.00 | 0.00 | 61 | 1015.7 |
| 20260905135457 | 22 | 200 | 0.0 | 1.6 | 0.00 | 0.00 | 0.00 | 61 | 1015.7 |
| 20260905135441 | 21 | 124 | 0.0 | 3.2 | 0.00 | 0.00 | 0.00 | 61 | 1015.7 |
| 20260905135214 | 21 | 225 | 0.0 | 3.2 | 0.00 | 0.00 | 0.00 | 61 | 1015.9 |
| 20260905135114 | 21 | 199 | 0.0 | 3.2 | 0.00 | 0.00 | 0.00 | 62 | 1015.8 |
| 20260905135048 | 21 | 202 | 0.0 | 3.2 | 0.00 | 0.00 | 0.00 | 62 | 1015.7 |
| 20260905135032 | 21 | 205 | 0.0 | 3.2 | 0.00 | 0.00 | 0.00 | 63 | 1015.8 |
| 20260905135017 | 21 | 198 | 0.0 | 3.2 | 0.00 | 0.00 | 0.00 | 62 | 1015.8 |
| 20260905134953 | 21 | 200 | 0.0 | 3.2 | 0.00 | 0.00 | 0.00 | 62 | 1015.8 |
| 20260905134937 | 21 | 198 | 0.0 | 3.2 | 0.00 | 0.00 | 0.00 | 62 | 1015.6 |
| 20260905134701 | 21 | 177 | 0.0 | 6.4 | 0.00 | 0.00 | 0.00 | 62 | 1015.7 |
| 20260905134214 | 21 | 121 | 3.2 | 6.4 | 0.00 | 0.00 | 0.00 | 62 | 1015.6 |
| 20260905134115 | 21 | 211 | 1.6 | 6.4 | 0.00 | 0.00 | 0.00 | 62 | 1015.9 |
| 20260905134014 | 21 | 48 | 1.6 | 6.4 | 0.00 | 0.00 | 0.00 | 62 | 1015.8 |
| 20260905133952 | 21 | 199 | 1.6 | 6.4 | 0.00 | 0.00 | 0.00 | 62 | 1015.8 |
| 20260905133937 | 21 | 204 | 0.0 | 6.4 | 0.00 | 0.00 | 0.00 | 62 | 1015.8 |
| 20260905133912 | 21 | 216 | 0.0 | 6.4 | 0.00 | 0.00 | 0.00 | 62 | 1016.0 |
| 20260905133856 | 21 | 186 | 1.6 | 6.4 | 0.00 | 0.00 | 0.00 | 62 | 1015.8 |
| 20260905133315 | 21 | 188 | 0.0 | 4.8 | 0.00 | 0.00 | 0.00 | 62 | 1015.9 |
| 20260905133215 | 21 | 195 | 0.0 | 4.8 | 0.00 | 0.00 | 0.00 | 61 | 1016.1 |
| 20260905133114 | 21 | 185 | 1.6 | 4.8 | 0.00 | 0.00 | 0.00 | 60 | 1016.0 |
| 20260905133017 | 21 | 208 | 0.0 | 4.8 | 0.00 | 0.00 | 0.00 | 61 | 1015.9 |
| 20260905133000 | 21 | 187 | 0.0 | 4.8 | 0.00 | 0.00 | 0.00 | 61 | 1015.7 |
| 20260905132944 | 20 | 199 | 0.0 | 4.8 | 0.00 | 0.00 | 0.00 | 61 | 1015.9 |
| 20260905132715 | 20 | 221 | 0.0 | 4.8 | 0.00 | 0.00 | 0.00 | 62 | 1016.0 |
| 20260905132651 | 20 | 197 | 0.0 | 6.4 | 0.00 | 0.00 | 0.00 | 61 | 1015.8 |
| 20260905132635 | 20 | 167 | 0.0 | 6.4 | 0.00 | 0.00 | 0.00 | 62 | 1016.2 |
| 20260905132317 | 20 | 191 | 0.0 | 6.4 | 0.00 | 0.00 | 0.00 | 62 | 1015.7 |
| 20260905132214 | 20 | 30 | 0.0 | 6.4 | 0.00 | 0.00 | 0.00 | 62 | 1015.9 |
| 20260905132115 | 20 | 189 | 3.2 | 6.4 | 0.00 | 0.00 | 0.00 | 62 | 1015.7 |
| 20260905132018 | 20 | 224 | 3.2 | 6.4 | 0.00 | 0.00 | 0.00 | 63 | 1016.0 |
| 20260905132014 | 20 | 138 | 1.6 | 6.4 | 0.00 | 0.00 | 0.00 | 63 | 1015.8 |
| 20260905131958 | 20 | 181 | 0.0 | 6.4 | 0.00 | 0.00 | 0.00 | 62 | 1016.1 |
| 20260905131943 | 20 | 184 | 1.6 | 6.4 | 0.00 | 0.00 | 0.00 | 63 | 1016.0 |
| 20260905131924 | 20 | 224 | 3.2 | 6.4 | 0.00 | 0.00 | 0.00 | 63 | 1016.0 |
| 20260905131652 | 20 | 199 | 0.0 | 6.4 | 0.00 | 0.00 | 0.00 | 63 | 1016.0 |
| 20260905131636 | 20 | 182 | 0.0 | 6.4 | 0.00 | 0.00 | 0.00 | 63 | 1016.2 |
| 20260905131314 | 20 | 211 | 1.6 | 6.4 | 0.00 | 0.00 | 0.00 | 62 | 1015.9 |
| 20260905131250 | 20 | 47 | 1.6 | 4.8 | 0.00 | 0.00 | 0.00 | 62 | 1015.9 |
| 20260905131234 | 20 | 221 | 1.6 | 4.8 | 0.00 | 0.00 | 0.00 | 62 | 1015.7 |
| 20260905130914 | 20 | 281 | 0.0 | 6.4 | 0.00 | 0.00 | 0.00 | 62 | 1016.0 |
| 20260905130814 | 20 | 195 | 0.0 | 6.4 | 0.00 | 0.00 | 0.00 | 62 | 1015.9 |
| 20260905130714 | 20 | 192 | 0.0 | 6.4 | 0.00 | 0.00 | 0.00 | 62 | 1016.1 |
| 20260905130614 | 20 | 110 | 0.0 | 6.4 | 0.00 | 0.00 | 0.00 | 62 | 1015.9 |
| 20260905130515 | 20 | 55 | 3.2 | 6.4 | 0.00 | 0.00 | 0.00 | 62 | 1016.2 |
| 20260905130414 | 20 | 162 | 1.6 | 6.4 | 0.00 | 0.00 | 0.00 | 61 | 1016.0 |
| 20260905130314 | 20 | 197 | 0.0 | 6.4 | 0.00 | 0.00 | 0.00 | 61 | 1016.3 |
| 20260905130215 | 20 | 190 | 0.0 | 6.4 | 0.00 | 0.00 | 0.00 | 61 | 1015.7 |
| 20260905130114 | 20 | 182 | 4.8 | 6.4 | 0.00 | 0.00 | 0.00 | 61 | 1016.1 |
| 20260905130014 | 20 | 186 | 1.6 | 6.4 | 0.00 | 0.00 | 0.00 | 61 | 1016.1 |
| 20260905125914 | 20 | 206 | 1.6 | 6.4 | 0.00 | 0.00 | 0.00 | 61 | 1016.1 |
| 20260905125816 | 21 | 255 | 3.2 | 6.4 | 0.00 | 0.00 | 0.00 | 61 | 1016.0 |
| 20260905125714 | 21 | 133 | 1.6 | 6.4 | 0.00 | 0.00 | 0.00 | 61 | 1016.2 |
| 20260905125614 | 21 | 193 | 3.2 | 4.8 | 0.00 | 0.00 | 0.00 | 62 | 1015.9 |
| 20260905125550 | 21 | 242 | 0.0 | 4.8 | 0.00 | 0.00 | 0.00 | 62 | 1016.0 |
| 20260905125533 | 21 | 177 | 0.0 | 4.8 | 0.00 | 0.00 | 0.00 | 62 | 1016.2 |
| 20260905125517 | 21 | 333 | 3.2 | 4.8 | 0.00 | 0.00 | 0.00 | 62 | 1016.1 |
| 20260905125250 | 21 | 167 | 0.0 | 4.8 | 0.00 | 0.00 | 0.00 | 62 | 1015.7 |
| 20260905125235 | 21 | 187 | 1.6 | 4.8 | 0.00 | 0.00 | 0.00 | 62 | 1015.9 |
| 20260905124915 | 21 | 178 | 0.0 | 4.8 | 0.00 | 0.00 | 0.00 | 64 | 1016.1 |
| 20260905124815 | 20 | 200 | 0.0 | 4.8 | 0.00 | 0.00 | 0.00 | 64 | 1016.1 |
| 20260905124714 | 20 | 190 | 0.0 | 4.8 | 0.00 | 0.00 | 0.00 | 64 | 1016.0 |
| 20260905124615 | 20 | 192 | 0.0 | 6.4 | 0.00 | 0.00 | 0.00 | 64 | 1016.1 |
| 20260905124550 | 20 | 172 | 0.0 | 6.4 | 0.00 | 0.00 | 0.00 | 64 | 1016.0 |
| 20260905124535 | 21 | 191 | 0.0 | 6.4 | 0.00 | 0.00 | 0.00 | 64 | 1016.1 |
| 20260905124214 | 21 | 194 | 1.6 | 6.4 | 0.00 | 0.00 | 0.00 | 65 | 1016.1 |
| 20260905124151 | 20 | 184 | 1.6 | 6.4 | 0.00 | 0.00 | 0.00 | 64 | 1015.9 |
| 20260905124135 | 20 | 197 | 0.0 | 6.4 | 0.00 | 0.00 | 0.00 | 64 | 1016.1 |
| 20260905123814 | 20 | 204 | 1.6 | 6.4 | 0.00 | 0.00 | 0.00 | 64 | 1015.9 |
| 20260905123715 | 20 | 192 | 1.6 | 6.4 | 0.00 | 0.00 | 0.00 | 64 | 1016.0 |
| 20260905123614 | 20 | 206 | 3.2 | 4.8 | 0.00 | 0.00 | 0.00 | 64 | 1015.8 |
| 20260905123601 | 20 | 211 | 1.6 | 4.8 | 0.00 | 0.00 | 0.00 | 64 | 1016.1 |
| 20260905123552 | 20 | 196 | 0.0 | 4.8 | 0.00 | 0.00 | 0.00 | 65 | 1016.1 |
| 20260905123535 | 20 | 105 | 1.6 | 4.8 | 0.00 | 0.00 | 0.00 | 64 | 1016.0 |
| 20260905123519 | 20 | 204 | 0.0 | 4.8 | 0.00 | 0.00 | 0.00 | 64 | 1016.2 |
| 20260905123500 | 20 | 211 | 1.6 | 4.8 | 0.00 | 0.00 | 0.00 | 64 | 1016.1 |
| 20260905123235 | 20 | 156 | 3.2 | 4.8 | 0.00 | 0.00 | 0.00 | 64 | 1016.2 |
| 20260905122914 | 21 | 176 | 0.0 | 4.8 | 0.00 | 0.00 | 0.00 | 64 | 1015.9 |
| 20260905122815 | 21 | 57 | 0.0 | 4.8 | 0.00 | 0.00 | 0.00 | 63 | 1016.1 |
| 20260905122714 | 21 | 197 | 0.0 | 4.8 | 0.00 | 0.00 | 0.00 | 63 | 1016.2 |
| 20260905122614 | 21 | 204 | 1.6 | 4.8 | 0.00 | 0.00 | 0.00 | 63 | 1016.2 |
| 20260905122515 | 21 | 192 | 3.2 | 4.8 | 0.00 | 0.00 | 0.00 | 63 | 1016.2 |
| 20260905122414 | 21 | 50 | 1.6 | 4.8 | 0.00 | 0.00 | 0.00 | 64 | 1016.4 |
| 20260905122314 | 21 | 200 | 0.0 | 4.8 | 0.00 | 0.00 | 0.00 | 63 | 1016.0 |
| 20260905122214 | 21 | 179 | 1.6 | 4.8 | 0.00 | 0.00 | 0.00 | 62 | 1016.0 |
| 20260905122115 | 21 | 230 | 0.0 | 4.8 | 0.00 | 0.00 | 0.00 | 63 | 1016.1 |
| 20260905122014 | 21 | 187 | 1.6 | 6.4 | 0.00 | 0.00 | 0.00 | 62 | 1016.1 |
| 20260905121914 | 21 | 193 | 0.0 | 6.4 | 0.00 | 0.00 | 0.00 | 62 | 1016.2 |
| 20260905121814 | 21 | 190 | 0.0 | 6.4 | 0.00 | 0.00 | 0.00 | 63 | 1016.0 |
| 20260905121715 | 21 | 219 | 1.6 | 9.7 | 0.00 | 0.00 | 0.00 | 63 | 1016.1 |
| 20260905121614 | 21 | 145 | 1.6 | 9.7 | 0.00 | 0.00 | 0.00 | 63 | 1016.2 |
| 20260905121514 | 21 | 208 | 1.6 | 9.7 | 0.00 | 0.00 | 0.00 | 63 | 1016.4 |
| 20260905121457 | 21 | 180 | 0.0 | 9.7 | 0.00 | 0.00 | 0.00 | 63 | 1016.4 |
| 20260905121441 | 21 | 91 | 0.0 | 9.7 | 0.00 | 0.00 | 0.00 | 63 | 1016.2 |
| 20260905121215 | 21 | 213 | 3.2 | 9.7 | 0.00 | 0.00 | 0.00 | 62 | 1016.2 |
| 20260905121114 | 21 | 71 | 3.2 | 9.7 | 0.00 | 0.00 | 0.00 | 63 | 1016.2 |
| 20260905121014 | 21 | 150 | 1.6 | 9.7 | 0.00 | 0.00 | 0.00 | 63 | 1016.5 |
| 20260905120914 | 21 | 202 | 1.6 | 9.7 | 0.00 | 0.00 | 0.00 | 63 | 1016.2 |
| 20260905120814 | 21 | 202 | 0.0 | 6.4 | 0.00 | 0.00 | 0.00 | 63 | 1016.2 |
| 20260905120714 | 21 | 84 | 1.6 | 6.4 | 0.00 | 0.00 | 0.00 | 63 | 1016.4 |
| 20260905120614 | 21 | 196 | 0.0 | 6.4 | 0.00 | 0.00 | 0.00 | 63 | 1016.1 |
| 20260905120514 | 21 | 138 | 1.6 | 6.4 | 0.00 | 0.00 | 0.00 | 63 | 1016.0 |
| 20260905120414 | 21 | 232 | 1.6 | 6.4 | 0.00 | 0.00 | 0.00 | 62 | 1016.1 |
| 20260905120347 | 21 | 193 | 0.0 | 6.4 | 0.00 | 0.00 | 0.00 | 63 | 1016.1 |
| 20260905120325 | 21 | 202 | 3.2 | 6.4 | 0.00 | 0.00 | 0.00 | 62 | 1016.1 |
| 20260905120309 | 21 | 187 | 1.6 | 6.4 | 0.00 | 0.00 | 0.00 | 62 | 1016.3 |
| 20260905120253 | 21 | 186 | 0.0 | 6.4 | 0.00 | 0.00 | 0.00 | 62 | 1016.2 |
| 20260905120236 | 21 | 134 | 1.6 | 4.8 | 0.00 | 0.00 | 0.00 | 63 | 1016.1 |
| 20260905120219 | 21 | 194 | 1.6 | 4.8 | 0.00 | 0.00 | 0.00 | 62 | 1016.3 |
| 20260905115950 | 21 | 202 | 0.0 | 4.8 | 0.00 | 0.00 | 0.00 | 61 | 1016.3 |
| 20260905115411 | 22 | 191 | 1.6 | 4.8 | 0.00 | 0.00 | 0.00 | 60 | 1016.1 |
| 20260905115310 | 22 | 57 | 1.6 | 4.8 | 0.00 | 0.00 | 0.00 | 60 | 1016.2 |
| 20260905115210 | 22 | 210 | 1.6 | 4.8 | 0.00 | 0.00 | 0.00 | 60 | 1016.1 |
| 20260905115110 | 22 | 196 | 0.0 | 4.8 | 0.00 | 0.00 | 0.00 | 61 | 1016.0 |
| 20260905115010 | 22 | 358 | 3.2 | 4.8 | 0.00 | 0.00 | 0.00 | 61 | 1016.4 |
| 20260905114911 | 22 | 198 | 0.0 | 6.4 | 0.00 | 0.00 | 0.00 | 61 | 1016.1 |
| 20260905114816 | 22 | 201 | 0.0 | 6.4 | 0.00 | 0.00 | 0.00 | 61 | 1016.2 |
| 20260905114753 | 22 | 211 | 0.0 | 6.4 | 0.00 | 0.00 | 0.00 | 61 | 1016.1 |
| 20260905114737 | 22 | 204 | 0.0 | 6.4 | 0.00 | 0.00 | 0.00 | 62 | 1016.3 |
| 20260905114720 | 22 | 257 | 0.0 | 6.4 | 0.00 | 0.00 | 0.00 | 62 | 1016.0 |
| 20260905114441 | 21 | 207 | 0.0 | 6.4 | 0.00 | 0.00 | 0.00 | 62 | 1016.3 |
| 20260905114211 | 21 | 215 | 0.0 | 6.4 | 0.00 | 0.00 | 0.00 | 62 | 1016.2 |
| 20260905114110 | 21 | 182 | 0.0 | 6.4 | 0.00 | 0.00 | 0.00 | 63 | 1016.3 |
| 20260905114010 | 21 | 204 | 1.6 | 6.4 | 0.00 | 0.00 | 0.00 | 62 | 1016.2 |
| 20260905113910 | 21 | 196 | 1.6 | 6.4 | 0.00 | 0.00 | 0.00 | 63 | 1016.2 |
| 20260905113810 | 21 | 206 | 0.0 | 6.4 | 0.00 | 0.00 | 0.00 | 62 | 1016.2 |
| 20260905113710 | 21 | 120 | 3.2 | 6.4 | 0.00 | 0.00 | 0.00 | 64 | 1016.3 |
| 20260905113610 | 21 | 215 | 0.0 | 6.4 | 0.00 | 0.00 | 0.00 | 63 | 1016.1 |
| 20260905113513 | 21 | 199 | 0.0 | 6.4 | 0.00 | 0.00 | 0.00 | 64 | 1016.1 |
| 20260905113502 | 20 | 194 | 0.0 | 6.4 | 0.00 | 0.00 | 0.00 | 66 | 1016.4 |
| 20260905113453 | 20 | 10 | 3.2 | 6.4 | 0.00 | 0.00 | 0.00 | 64 | 1016.3 |
| 20260905113437 | 20 | 222 | 0.0 | 6.4 | 0.00 | 0.00 | 0.00 | 65 | 1016.2 |
| 20260905113420 | 20 | 194 | 0.0 | 6.4 | 0.00 | 0.00 | 0.00 | 66 | 1016.4 |
| 20260905113111 | 20 | 199 | 0.0 | 6.4 | 0.00 | 0.00 | 0.00 | 67 | 1016.4 |
| 20260905113010 | 20 | 51 | 3.2 | 6.4 | 0.00 | 0.00 | 0.00 | 66 | 1016.2 |
| 20260905112948 | 20 | 192 | 0.0 | 6.4 | 0.00 | 0.00 | 0.00 | 66 | 1016.2 |
| 20260905112932 | 20 | 207 | 0.0 | 6.4 | 0.00 | 0.00 | 0.00 | 66 | 1016.3 |
| 20260905112907 | 20 | 193 | 0.0 | 6.4 | 0.00 | 0.00 | 0.00 | 67 | 1016.2 |
| 20260905112851 | 20 | 180 | 0.0 | 6.4 | 0.00 | 0.00 | 0.00 | 67 | 1016.3 |
| 20260905112353 | 20 | 209 | 1.6 | 4.8 | 0.00 | 0.00 | 0.00 | 66 | 1016.3 |
| 20260905112330 | 20 | 199 | 3.2 | 4.8 | 0.00 | 0.00 | 0.00 | 65 | 1016.1 |
| 20260905112010 | 20 | 201 | 0.0 | 4.8 | 0.00 | 0.00 | 0.00 | 66 | 1016.3 |
| 20260905111911 | 20 | 155 | 0.0 | 4.8 | 0.00 | 0.00 | 0.00 | 66 | 1016.3 |
| 20260905111855 | 21 | 167 | 0.0 | 3.2 | 0.00 | 0.00 | 0.00 | 62 | 1016.0 |
| 20260905111846 | 20 | 171 | 1.6 | 4.8 | 0.00 | 0.00 | 0.00 | 66 | 1016.1 |
| 20260905111822 | 20 | 200 | 0.0 | 4.8 | 0.00 | 0.00 | 0.00 | 66 | 1016.2 |
| 20260905111807 | 21 | 204 | 0.0 | 4.8 | 0.00 | 0.00 | 0.00 | 66 | 1016.4 |
| 20260905111751 | 21 | 170 | 0.0 | 4.8 | 0.00 | 0.00 | 0.00 | 65 | 1016.3 |
| 20260905111735 | 21 | 209 | 1.6 | 4.8 | 0.00 | 0.00 | 0.00 | 65 | 1016.1 |
| 20260905111248 | 21 | 190 | 0.0 | 3.2 | 0.00 | 0.00 | 0.00 | 64 | 1016.1 |
| 20260905111232 | 21 | 189 | 0.0 | 3.2 | 0.00 | 0.00 | 0.00 | 63 | 1015.9 |
| 20260905110955 | 21 | 232 | 3.2 | 3.2 | 0.00 | 0.00 | 0.00 | 63 | 1016.1 |
| 20260905110938 | 21 | 201 | 0.0 | 3.2 | 0.00 | 0.00 | 0.00 | 62 | 1016.3 |
| 20260905110918 | 21 | 167 | 0.0 | 3.2 | 0.00 | 0.00 | 0.00 | 62 | 1016.0 |
| 20260905110609 | 21 | 210 | 1.6 | 3.2 | 0.00 | 0.00 | 0.00 | 64 | 1016.3 |
| 20260905110509 | 21 | 199 | 1.6 | 3.2 | 0.00 | 0.00 | 0.00 | 64 | 1016.2 |
| 20260905110410 | 21 | 196 | 0.0 | 6.4 | 0.00 | 0.00 | 0.00 | 64 | 1016.2 |
| 20260905110351 | 21 | 194 | 1.6 | 6.4 | 0.00 | 0.00 | 0.00 | 64 | 1016.1 |
| 20260905110329 | 21 | 203 | 0.0 | 6.4 | 0.00 | 0.00 | 0.00 | 65 | 1016.0 |
| 20260905110044 | 20 | 297 | 1.6 | 6.4 | 0.00 | 0.00 | 0.00 | 65 | 1016.1 |
| 20260905110028 | 20 | 209 | 0.0 | 6.4 | 0.00 | 0.00 | 0.00 | 65 | 1016.3 |
| 20260905105709 | 20 | 183 | 0.0 | 6.4 | 0.00 | 0.00 | 0.00 | 64 | 1016.2 |
| 20260905105609 | 20 | 339 | 0.0 | 6.4 | 0.00 | 0.00 | 0.00 | 65 | 1016.2 |
| 20260905105536 | 20 | 198 | 0.0 | 4.8 | 0.00 | 0.00 | 0.00 | 66 | 1016.1 |
| 20260905105527 | 21 | 207 | 3.2 | 6.4 | 0.00 | 0.00 | 0.00 | 65 | 1016.4 |
| 20260905105511 | 21 | 186 | 0.0 | 6.4 | 0.00 | 0.00 | 0.00 | 66 | 1016.1 |
| 20260905105454 | 20 | 131 | 0.0 | 6.4 | 0.00 | 0.00 | 0.00 | 67 | 1016.2 |
| 20260905105431 | 20 | 200 | 0.0 | 6.4 | 0.00 | 0.00 | 0.00 | 67 | 1016.1 |
| 20260905105155 | 20 | 181 | 0.0 | 6.4 | 0.00 | 0.00 | 0.00 | 68 | 1015.9 |
| 20260905105140 | 20 | 162 | 1.6 | 6.4 | 0.00 | 0.00 | 0.00 | 68 | 1016.3 |
| 20260905104856 | 20 | 198 | 0.0 | 6.4 | 0.00 | 0.00 | 0.00 | 68 | 1016.3 |
| 20260905104840 | 20 | 214 | 1.6 | 6.4 | 0.00 | 0.00 | 0.00 | 68 | 1016.3 |
| 20260905104824 | 20 | 16 | 4.8 | 6.4 | 0.00 | 0.00 | 0.00 | 67 | 1016.0 |
| 20260905104808 | 20 | 116 | 1.6 | 4.8 | 0.00 | 0.00 | 0.00 | 66 | 1016.1 |
| 20260905104753 | 20 | 204 | 0.0 | 4.8 | 0.00 | 0.00 | 0.00 | 66 | 1016.1 |
| 20260905104306 | 20 | 169 | 0.0 | 6.4 | 0.00 | 0.00 | 0.00 | 66 | 1016.3 |
| 20260905104250 | 20 | 182 | 3.2 | 6.4 | 0.00 | 0.00 | 0.00 | 66 | 1016.4 |
| 20260905103745 | 20 | 192 | 0.0 | 6.4 | 0.00 | 0.00 | 0.00 | 67 | 1016.2 |
| 20260905103729 | 20 | 278 | 3.2 | 6.4 | 0.00 | 0.00 | 0.00 | 68 | 1016.4 |
| 20260905103409 | 20 | 181 | 1.6 | 6.4 | 0.00 | 0.00 | 0.00 | 68 | 1016.2 |
| 20260905103311 | 19 | 194 | 0.0 | 6.4 | 0.00 | 0.00 | 0.00 | 69 | 1016.1 |
| 20260905103246 | 19 | 39 | 1.6 | 6.4 | 0.00 | 0.00 | 0.00 | 69 | 1016.1 |
| 20260905103230 | 19 | 54 | 0.0 | 4.8 | 0.00 | 0.00 | 0.00 | 69 | 1016.2 |
| 20260905102953 | 19 | 124 | 3.2 | 9.7 | 0.00 | 0.00 | 0.00 | 69 | 1016.1 |
| 20260905102937 | 19 | 198 | 0.0 | 9.7 | 0.00 | 0.00 | 0.00 | 69 | 1016.0 |
| 20260905102709 | 18 | 194 | 0.0 | 9.7 | 0.00 | 0.00 | 0.00 | 69 | 1016.0 |
| 20260905102610 | 18 | 182 | 0.0 | 9.7 | 0.00 | 0.00 | 0.00 | 69 | 1016.1 |
| 20260905102510 | 18 | 160 | 0.0 | 9.7 | 0.00 | 0.00 | 0.00 | 69 | 1016.2 |
| 20260905102410 | 18 | 188 | 0.0 | 9.7 | 0.00 | 0.00 | 0.00 | 69 | 1016.3 |
| 20260905102358 | 19 | 69 | 3.2 | 6.4 | 0.00 | 0.00 | 0.00 | 70 | 1016.2 |
| 20260905102352 | 20 | 80 | 0.0 | 6.4 | 0.00 | 0.00 | 0.00 | 68 | 1016.1 |
| 20260905102347 | 21 | 184 | 3.2 | 6.4 | 0.00 | 0.00 | 0.00 | 66 | 1015.9 |
| 20260905102343 | 21 | 124 | 0.0 | 29.0 | 0.00 | 0.00 | 0.00 | 67 | 1016.3 |
| 20260905102335 | 18 | 283 | 0.0 | 9.7 | 0.00 | 0.00 | 0.00 | 68 | 1016.0 |
| 20260905102312 | 18 | 12 | 1.6 | 9.7 | 0.00 | 0.00 | 0.00 | 68 | 1016.2 |
| 20260905102257 | 18 | 50 | 1.6 | 6.4 | 0.00 | 0.00 | 0.00 | 68 | 1016.2 |
| 20260905102241 | 19 | 183 | 0.0 | 6.4 | 0.00 | 0.00 | 0.00 | 69 | 1016.2 |
| 20260905102224 | 19 | 204 | 3.2 | 4.8 | 0.00 | 0.00 | 0.00 | 70 | 1016.4 |
| 20260905102208 | 19 | 188 | 0.0 | 3.2 | 0.00 | 0.00 | 0.00 | 71 | 1016.1 |
| 20260905102143 | 19 | 193 | 0.0 | 4.8 | 0.00 | 0.00 | 0.00 | 71 | 1016.2 |
| 20260905102127 | 19 | 201 | 0.0 | 4.8 | 0.00 | 0.00 | 0.00 | 71 | 1016.1 |
| 20260905102111 | 18 | 108 | 0.0 | 4.8 | 0.00 | 0.00 | 0.00 | 71 | 1016.2 |
| 20260905101609 | 18 | 114 | 0.0 | 4.8 | 0.00 | 0.00 | 0.00 | 72 | 1016.3 |
| 20260905101113 | 18 | 201 | 1.6 | 4.8 | 0.00 | 0.00 | 0.00 | 71 | 1016.2 |
| 20260905101057 | 18 | 194 | 0.0 | 4.8 | 0.00 | 0.00 | 0.00 | 71 | 1016.1 |
| 20260905101033 | 18 | 202 | 0.0 | 6.4 | 0.00 | 0.00 | 0.00 | 71 | 1016.2 |
| 20260905101016 | 18 | 194 | 0.0 | 6.4 | 0.00 | 0.00 | 0.00 | 71 | 1016.0 |
| 20260905101000 | 18 | 207 | 3.2 | 6.4 | 0.00 | 0.00 | 0.00 | 71 | 1016.1 |
| 20260905100944 | 18 | 200 | 3.2 | 6.4 | 0.00 | 0.00 | 0.00 | 71 | 1016.2 |
| 20260905100928 | 19 | 205 | 0.0 | 6.4 | 0.00 | 0.00 | 0.00 | 71 | 1015.8 |
| 20260905100911 | 19 | 69 | 3.2 | 6.4 | 0.00 | 0.00 | 0.00 | 70 | 1016.2 |
| 20260905100645 | 19 | 192 | 0.0 | 6.4 | 0.00 | 0.00 | 0.00 | 70 | 1015.9 |
| 20260905100409 | 19 | 182 | 1.6 | 6.4 | 0.00 | 0.00 | 0.00 | 70 | 1016.1 |
| 20260905095920 | 20 | 192 | 0.0 | 6.4 | 0.00 | 0.00 | 0.00 | 69 | 1016.0 |
| 20260905095903 | 20 | 54 | 3.2 | 6.4 | 0.00 | 0.00 | 0.00 | 69 | 1015.9 |
| 20260905095406 | 20 | 182 | 0.0 | 14.5 | 0.00 | 0.00 | 0.00 | 69 | 1016.2 |
| 20260905095343 | 20 | 191 | 0.0 | 14.5 | 0.00 | 0.00 | 0.00 | 68 | 1016.1 |
| 20260905095326 | 20 | 190 | 0.0 | 14.5 | 0.00 | 0.00 | 0.00 | 68 | 1016.2 |
| 20260905095310 | 20 | 224 | 1.6 | 14.5 | 0.00 | 0.00 | 0.00 | 68 | 1016.1 |
| 20260905095255 | 20 | 352 | 1.6 | 14.5 | 0.00 | 0.00 | 0.00 | 67 | 1016.0 |
| 20260905095010 | 20 | 245 | 1.6 | 14.5 | 0.00 | 0.00 | 0.00 | 67 | 1016.1 |
| 20260905094953 | 20 | 245 | 0.0 | 14.5 | 0.00 | 0.00 | 0.00 | 67 | 1015.9 |
| 20260905094937 | 20 | 6 | 1.6 | 6.4 | 0.00 | 0.00 | 0.00 | 67 | 1016.0 |
| 20260905094921 | 20 | 248 | 1.6 | 6.4 | 0.00 | 0.00 | 0.00 | 67 | 1015.9 |
| 20260905094642 | 20 | 80 | 0.0 | 6.4 | 0.00 | 0.00 | 0.00 | 68 | 1016.1 |
| 20260905094416 | 20 | 277 | 3.2 | 6.4 | 0.00 | 0.00 | 0.00 | 68 | 1015.6 |
| 20260905094400 | 20 | 178 | 1.6 | 6.4 | 0.00 | 0.00 | 0.00 | 68 | 1016.3 |
| 20260905094344 | 21 | 112 | 1.6 | 6.4 | 0.00 | 0.00 | 0.00 | 67 | 1015.8 |
| 20260905094328 | 21 | 185 | 3.2 | 6.4 | 0.00 | 0.00 | 0.00 | 66 | 1016.1 |
| 20260905094309 | 21 | 184 | 3.2 | 6.4 | 0.00 | 0.00 | 0.00 | 66 | 1015.9 |
| 20260905094043 | 21 | 204 | 0.0 | 6.4 | 0.00 | 0.00 | 0.00 | 66 | 1015.9 |
| 20260905094027 | 21 | 215 | 1.6 | 29.0 | 0.00 | 0.00 | 0.00 | 66 | 1016.1 |
| 20260905093320 | 21 | 231 | 1.6 | 29.0 | 0.00 | 0.00 | 0.00 | 65 | 1016.1 |
| 20260905093303 | 21 | 208 | 1.6 | 29.0 | 0.00 | 0.00 | 0.00 | 65 | 1015.8 |
| 20260905093248 | 21 | 330 | 0.0 | 29.0 | 0.00 | 0.00 | 0.00 | 65 | 1016.1 |
| 20260905093232 | 21 | 228 | 1.6 | 29.0 | 0.00 | 0.00 | 0.00 | 66 | 1016.3 |
| 20260905093216 | 21 | 183 | 1.6 | 29.0 | 0.00 | 0.00 | 0.00 | 66 | 1016.1 |
| 20260905093157 | 21 | 124 | 0.0 | 29.0 | 0.00 | 0.00 | 0.00 | 67 | 1016.3 |
| 20260905092932 | 21 | 213 | 14.5 | 29.0 | 0.00 | 0.00 | 0.00 | 66 | 1015.8 |
| 20260905092916 | 21 | 325 | 3.2 | 11.3 | 0.00 | 0.00 | 0.00 | 68 | 1016.1 |
| 20260905092209 | 21 | 208 | 1.6 | 11.3 | 0.00 | 0.00 | 0.00 | 69 | 1016.0 |
| 20260905092108 | 20 | 188 | 1.6 | 11.3 | 0.00 | 0.00 | 0.00 | 70 | 1016.3 |
| 20260905092009 | 20 | 163 | 1.6 | 11.3 | 0.00 | 0.00 | 0.00 | 70 | 1016.3 |
| 20260905091909 | 20 | 176 | 0.0 | 11.3 | 0.00 | 0.00 | 0.00 | 69 | 1016.1 |
| 20260905091809 | 21 | 175 | 0.0 | 11.3 | 0.00 | 0.00 | 0.00 | 69 | 1016.2 |
| 20260905091710 | 21 | 170 | 3.2 | 11.3 | 0.00 | 0.00 | 0.00 | 68 | 1016.1 |
| 20260905091611 | 21 | 221 | 1.6 | 11.3 | 0.00 | 0.00 | 0.00 | 68 | 1016.1 |
| 20260905091509 | 21 | 175 | 0.0 | 11.3 | 0.00 | 0.00 | 0.00 | 67 | 1016.2 |
| 20260905091409 | 21 | 175 | 3.2 | 11.3 | 0.00 | 0.00 | 0.00 | 67 | 1016.0 |
| 20260905091308 | 21 | 339 | 1.6 | 11.3 | 0.00 | 0.00 | 0.00 | 68 | 1016.4 |
| 20260905091209 | 21 | 191 | 1.6 | 11.3 | 0.00 | 0.00 | 0.00 | 68 | 1016.3 |
| 20260905091109 | 21 | 155 | 1.6 | 11.3 | 0.00 | 0.00 | 0.00 | 68 | 1016.2 |
| 20260905091009 | 21 | 190 | 1.6 | 11.3 | 0.00 | 0.00 | 0.00 | 69 | 1015.9 |
| 20260905090909 | 21 | 196 | 1.6 | 11.3 | 0.00 | 0.00 | 0.00 | 69 | 1016.0 |
| 20260905090816 | 19 | 201 | 3.2 | 6.4 | 0.00 | 0.00 | 0.00 | 73 | 1016.3 |
| 20260905090810 | 21 | 272 | 3.2 | 11.3 | 0.00 | 0.00 | 0.00 | 69 | 1016.1 |
| 20260905090746 | 20 | 196 | 1.6 | 6.4 | 0.00 | 0.00 | 0.00 | 70 | 1015.9 |
| 20260905090730 | 20 | 226 | 0.0 | 6.4 | 0.00 | 0.00 | 0.00 | 71 | 1015.9 |
| 20260905090453 | 20 | 191 | 1.6 | 6.4 | 0.00 | 0.00 | 0.00 | 72 | 1016.1 |
| 20260905090437 | 20 | 199 | 0.0 | 6.4 | 0.00 | 0.00 | 0.00 | 72 | 1016.3 |
| 20260905090419 | 19 | 201 | 3.2 | 6.4 | 0.00 | 0.00 | 0.00 | 73 | 1016.3 |
| 20260905090109 | 19 | 205 | 1.6 | 6.4 | 0.00 | 0.00 | 0.00 | 73 | 1016.3 |
| 20260905090009 | 19 | 200 | 0.0 | 6.4 | 0.00 | 0.00 | 0.00 | 73 | 1016.1 |
| 20260905085909 | 19 | 167 | 1.6 | 6.4 | 0.00 | 0.00 | 0.00 | 73 | 1016.1 |
| 20260905085809 | 19 | 268 | 3.2 | 6.4 | 0.00 | 0.00 | 0.00 | 73 | 1016.2 |
| 20260905085709 | 19 | 200 | 0.0 | 6.4 | 0.00 | 0.00 | 0.00 | 73 | 1016.2 |
| 20260905085610 | 19 | 198 | 0.0 | 6.4 | 0.00 | 0.00 | 0.00 | 73 | 1015.8 |
| 20260905085541 | 19 | 158 | 0.0 | 6.4 | 0.00 | 0.00 | 0.00 | 73 | 1016.1 |
| 20260905085526 | 19 | 180 | 0.0 | 6.4 | 0.00 | 0.00 | 0.00 | 74 | 1016.1 |
| 20260905085509 | 18 | 177 | 0.0 | 6.4 | 0.00 | 0.00 | 0.00 | 75 | 1016.1 |
| 20260905085242 | 18 | 209 | 1.6 | 6.4 | 0.00 | 0.00 | 0.00 | 75 | 1015.8 |
| 20260905085226 | 19 | 85 | 0.0 | 6.4 | 0.00 | 0.00 | 0.00 | 75 | 1016.5 |
| 20260905085210 | 19 | 194 | 0.0 | 3.2 | 0.00 | 0.00 | 0.00 | 75 | 1016.0 |
| 20260905084935 | 19 | 192 | 0.0 | 1.6 | 0.00 | 0.00 | 0.00 | 76 | 1016.2 |
| 20260905084708 | 19 | 181 | 1.6 | 1.6 | 0.00 | 0.00 | 0.00 | 76 | 1016.0 |
| 20260905084251 | 19 | 198 | 1.6 | 6.4 | 0.00 | 0.00 | 0.00 | 76 | 1016.2 |
| 20260905084152 | 19 | 201 | 0.0 | 6.4 | 0.00 | 0.00 | 0.00 | 77 | 1015.9 |
| 20260905084051 | 19 | 178 | 0.0 | 6.4 | 0.00 | 0.00 | 0.00 | 77 | 1015.9 |
| 20260905083952 | 19 | 181 | 0.0 | 6.4 | 0.00 | 0.00 | 0.00 | 77 | 1015.9 |
| 20260905083851 | 19 | 191 | 0.0 | 6.4 | 0.00 | 0.00 | 0.00 | 78 | 1015.7 |
| 20260905083751 | 19 | 212 | 3.2 | 6.4 | 0.00 | 0.00 | 0.00 | 77 | 1016.0 |
| 20260905083651 | 19 | 203 | 0.0 | 4.8 | 0.00 | 0.00 | 0.00 | 77 | 1015.9 |
| 20260905083552 | 19 | 176 | 0.0 | 4.8 | 0.00 | 0.00 | 0.00 | 77 | 1015.7 |
| 20260905083451 | 20 | 202 | 0.0 | 6.4 | 0.00 | 0.00 | 0.00 | 77 | 1015.9 |
| 20260905083352 | 20 | 195 | 0.0 | 6.4 | 0.00 | 0.00 | 0.00 | 77 | 1016.0 |
| 20260905083342 | 20 | 200 | 0.0 | 9.7 | 0.00 | 0.00 | 0.00 | 75 | 1016.0 |
| 20260905083326 | 20 | 249 | 3.2 | 6.4 | 0.00 | 0.00 | 0.00 | 77 | 1015.6 |
| 20260905083309 | 20 | 191 | 0.0 | 9.7 | 0.00 | 0.00 | 0.00 | 77 | 1015.6 |
| 20260905083254 | 20 | 147 | 0.0 | 9.7 | 0.00 | 0.00 | 0.00 | 76 | 1015.5 |
| 20260905083018 | 20 | 204 | 0.0 | 9.7 | 0.00 | 0.00 | 0.00 | 75 | 1016.0 |
| 20260905083001 | 20 | 200 | 0.0 | 9.7 | 0.00 | 0.00 | 0.00 | 75 | 1016.0 |
| 20260905082651 | 20 | 183 | 0.0 | 9.7 | 0.00 | 0.00 | 0.00 | 75 | 1015.8 |
| 20260905082626 | 20 | 223 | 0.0 | 9.7 | 0.00 | 0.00 | 0.00 | 76 | 1015.8 |
| 20260905082611 | 20 | 202 | 0.0 | 9.7 | 0.00 | 0.00 | 0.00 | 77 | 1015.8 |
| 20260905082554 | 20 | 192 | 0.0 | 9.7 | 0.00 | 0.00 | 0.00 | 76 | 1015.8 |